Time,TemperatureF,DewpointF,PressureIn,WindDirection,WindDirectionDegrees,WindSpeedMPH,WindSpeedGustMPH,Humidity,HourlyPrecipIn,Conditions,Clouds,dailyrainin,SoftwareType,DateUTC
2014-01-01 07:15:00,46.0,46.0,30.15,East,96,0.0,0.0,100,0.00,,,0.00,VWS V14.01,2014-01-01 13:15:00,
2014-01-01 07:16:00,46.0,46.0,30.15,East,96,0.0,0.0,100,0.08,,,0.00,VWS V14.01,2014-01-01 13:16:00,
2014-01-01 07:17:00,46.0,46.0,30.15,East,96,0.0,0.0,100,0.00,,,0.00,VWS V14.01,2014-01-01 13:17:00,
2014-01-01 07:18:00,46.0,46.0,30.12,East,96,0.0,0.0,100,0.00,,,0.00,VWS V14.01,2014-01-01 13:18:00,
2014-01-01 07:19:00,46.0,46.0,30.12,East,96,0.0,0.0,100,0.00,,,0.00,VWS V14.01,2014-01-01 13:19:00,
2014-01-01 07:20:00,46.0,46.0,30.12,East,96,0.0,0.0,100,0.00,,,0.00,VWS V14.01,2014-01-01 13:20:00,
2014-01-01 07:21:00,46.0,46.0,30.12,East,96,0.0,0.0,100,0.00,,,0.00,VWS V14.01,2014-01-01 13:21:00,
2014-01-01 07:22:00,46.0,46.0,30.12,East,96,0.0,0.0,100,0.00,,,0.00,VWS V14.01,2014-01-01 13:22:00,
2014-01-01 07:23:00,46.0,46.0,30.12,East,96,0.0,0.0,100,0.00,,,0.00,VWS V14.01,2014-01-01 13:23:00,
2014-01-01 07:24:00,46.0,46.0,30.12,East,96,0.0,0.0,100,0.00,,,0.00,VWS V14.01,2014-01-01 13:24:00,
2014-01-01 07:25:00,46.0,46.0,30.12,East,96,0.0,0.0,100,0.00,,,0.00,VWS V14.01,2014-01-01 13:25:00,
2014-01-01 07:26:00,46.0,46.0,30.12,East,96,0.0,0.0,100,0.00,,,0.00,VWS V14.01,2014-01-01 13:26:00,
2014-01-01 07:27:00,46.0,46.0,30.12,East,96,0.0,0.0,100,0.00,,,0.00,VWS V14.01,2014-01-01 13:27:00,
2014-01-01 07:28:00,46.0,46.0,30.12,East,96,0.0,0.0,100,0.00,,,0.00,VWS V14.01,2014-01-01 13:28:00,
2014-01-01 07:29:00,46.2,46.2,30.12,East,96,0.0,0.0,100,0.00,,,0.00,VWS V14.01,2014-01-01 13:29:00,
2014-01-01 07:30:00,46.2,46.2,30.12,East,96,0.0,0.0,100,0.00,,,0.00,VWS V14.01,2014-01-01 13:30:00,
2014-01-01 07:31:00,46.2,46.2,30.12,East,96,0.0,0.0,100,0.00,,,0.00,VWS V14.01,2014-01-01 13:31:00,
2014-01-01 07:32:00,46.2,46.2,30.12,ESE,122,0.0,0.0,100,0.00,,,0.00,VWS V14.01,2014-01-01 13:32:00,
2014-01-01 07:33:00,46.2,46.2,30.12,ESE,122,0.0,0.0,100,0.00,,,0.00,VWS V14.01,2014-01-01 13:33:00,
2014-01-01 07:34:00,46.2,46.2,30.12,ESE,122,0.0,0.0,100,0.00,,,0.00,VWS V14.01,2014-01-01 13:34:00,
2014-01-01 07:35:00,46.2,46.2,30.12,SSE,160,0.0,0.0,100,0.00,,,0.00,VWS V14.01,2014-01-01 13:35:00,
2014-01-01 07:36:00,46.2,46.2,30.12,SSE,150,0.0,0.0,100,0.00,,,0.00,VWS V14.01,2014-01-01 13:36:00,
2014-01-01 07:37:00,46.2,46.2,30.12,SE,127,0.0,0.0,100,0.00,,,0.00,VWS V14.01,2014-01-01 13:37:00,
2014-01-01 07:38:00,46.2,46.2,30.12,ESE,120,0.0,0.0,100,0.00,,,0.00,VWS V14.01,2014-01-01 13:38:00,
2014-01-01 07:39:00,46.2,46.2,30.12,ESE,106,0.0,0.0,100,0.00,,,0.00,VWS V14.01,2014-01-01 13:39:00,
2014-01-01 07:40:00,46.2,46.2,30.12,ESE,106,0.0,0.0,100,0.00,,,0.00,VWS V14.01,2014-01-01 13:40:00,
2014-01-01 07:41:00,46.2,46.2,30.12,ESE,106,0.0,0.0,100,0.00,,,0.00,VWS V14.01,2014-01-01 13:41:00,
2014-01-01 07:42:00,46.2,46.2,30.12,ESE,106,0.0,0.0,100,0.00,,,0.00,VWS V14.01,2014-01-01 13:42:00,
2014-01-01 07:43:00,46.2,46.2,30.12,ESE,106,0.0,0.0,100,0.00,,,0.00,VWS V14.01,2014-01-01 13:43:00,
2014-01-01 07:44:00,46.2,46.2,30.12,ESE,107,0.0,0.0,100,0.00,,,0.00,VWS V14.01,2014-01-01 13:44:00,
2014-01-01 07:45:00,46.2,46.2,30.12,ESE,107,0.0,0.0,100,0.00,,,0.00,VWS V14.01,2014-01-01 13:45:00,
2014-01-01 07:46:00,46.2,46.2,30.12,ESE,106,0.0,0.0,100,0.00,,,0.00,VWS V14.01,2014-01-01 13:46:00,
2014-01-01 07:47:00,46.2,46.2,30.15,ESE,106,0.0,0.0,100,0.00,,,0.00,VWS V14.01,2014-01-01 13:47:00,
2014-01-01 07:48:00,46.4,46.4,30.15,ESE,106,0.0,0.0,100,0.00,,,0.00,VWS V14.01,2014-01-01 13:48:00,
2014-01-01 07:49:00,46.4,46.4,30.15,ESE,106,0.0,0.0,100,0.00,,,0.00,VWS V14.01,2014-01-01 13:49:00,
2014-01-01 07:50:00,46.4,46.4,30.15,SE,141,0.0,0.0,100,0.00,,,0.00,VWS V14.01,2014-01-01 13:50:00,
2014-01-01 07:51:00,46.4,46.4,30.15,SE,141,0.0,0.0,100,0.00,,,0.00,VWS V14.01,2014-01-01 13:51:00,
2014-01-01 07:52:00,46.4,46.4,30.15,SE,141,0.0,0.0,100,0.00,,,0.00,VWS V14.01,2014-01-01 13:52:00,
2014-01-01 07:53:00,46.4,46.4,30.15,East,89,0.0,0.0,100,0.00,,,0.00,VWS V14.01,2014-01-01 13:53:00,
2014-01-01 07:54:00,46.4,46.4,30.15,East,89,0.0,0.0,100,0.00,,,0.00,VWS V14.01,2014-01-01 13:54:00,
2014-01-01 07:55:00,46.4,46.4,30.15,East,89,0.0,0.0,100,0.00,,,0.00,VWS V14.01,2014-01-01 13:55:00,
2014-01-01 07:56:00,46.4,46.4,30.15,East,89,0.0,0.0,100,0.00,,,0.00,VWS V14.01,2014-01-01 13:56:00,
2014-01-01 07:57:00,46.4,46.4,30.15,East,89,0.0,0.0,100,0.00,,,0.00,VWS V14.01,2014-01-01 13:57:00,
2014-01-01 07:58:00,46.4,46.4,30.15,East,89,0.0,0.0,100,0.00,,,0.00,VWS V14.01,2014-01-01 13:58:00,
2014-01-01 07:59:00,46.4,46.4,30.15,East,89,0.0,0.0,100,0.00,,,0.00,VWS V14.01,2014-01-01 13:59:00,
2014-01-01 08:00:00,46.4,46.4,30.15,East,89,0.0,0.0,100,0.00,,,0.00,VWS V14.01,2014-01-01 14:00:00,
2014-01-01 08:01:00,46.4,46.4,30.15,East,89,0.0,0.0,100,0.00,,,0.00,VWS V14.01,2014-01-01 14:01:00,
2014-01-01 08:02:00,46.6,46.6,30.15,SE,126,4.0,6.3,100,0.04,,,0.04,VWS V14.01,2014-01-01 14:02:00,
2014-01-01 08:03:00,46.6,46.6,30.12,ESE,111,0.0,4.0,100,0.04,,,0.04,VWS V14.01,2014-01-01 14:03:00,
2014-01-01 08:04:00,46.6,46.6,30.12,ESE,111,0.0,0.0,100,0.04,,,0.04,VWS V14.01,2014-01-01 14:04:00,
2014-01-01 08:05:00,46.6,46.6,30.12,ESE,111,0.0,0.0,100,0.04,,,0.04,VWS V14.01,2014-01-01 14:05:00,
2014-01-01 08:06:00,46.6,46.6,30.12,ESE,111,0.0,0.0,100,0.04,,,0.04,VWS V14.01,2014-01-01 14:06:00,
2014-01-01 08:07:00,46.6,46.6,30.12,SE,124,0.0,0.0,100,0.04,,,0.04,VWS V14.01,2014-01-01 14:07:00,
2014-01-01 08:08:00,46.6,46.6,30.12,SSE,150,0.0,0.0,100,0.04,,,0.04,VWS V14.01,2014-01-01 14:08:00,
2014-01-01 08:09:00,46.6,46.6,30.12,SSE,152,0.0,0.0,100,0.04,,,0.04,VWS V14.01,2014-01-01 14:09:00,
2014-01-01 08:10:00,46.8,46.8,30.12,ESE,122,2.7,3.6,100,0.04,,,0.04,VWS V14.01,2014-01-01 14:10:00,
2014-01-01 08:11:00,46.8,46.8,30.12,East,82,0.0,3.6,100,0.04,,,0.04,VWS V14.01,2014-01-01 14:11:00,
2014-01-01 08:12:00,46.8,46.8,30.12,ESE,106,0.0,2.2,100,0.04,,,0.04,VWS V14.01,2014-01-01 14:12:00,
2014-01-01 08:13:00,46.8,46.8,30.12,SE,140,0.0,0.0,100,0.04,,,0.04,VWS V14.01,2014-01-01 14:13:00,
2014-01-01 08:14:00,46.8,46.8,30.12,ESE,109,0.0,0.0,100,0.04,,,0.04,VWS V14.01,2014-01-01 14:14:00,
2014-01-01 08:15:00,46.8,46.8,30.12,SE,129,0.0,0.0,100,0.04,,,0.04,VWS V14.01,2014-01-01 14:15:00,
2014-01-01 08:16:00,46.8,46.8,30.12,SSE,164,0.0,0.0,100,0.04,,,0.04,VWS V14.01,2014-01-01 14:16:00,
2014-01-01 08:17:00,46.8,46.8,30.12,SE,129,0.0,0.0,100,0.04,,,0.04,VWS V14.01,2014-01-01 14:17:00,
2014-01-01 08:18:00,46.8,46.8,30.12,SSE,159,0.0,0.0,100,0.04,,,0.04,VWS V14.01,2014-01-01 14:18:00,
2014-01-01 08:19:00,46.8,46.8,30.12,SE,140,0.0,4.9,100,0.04,,,0.04,VWS V14.01,2014-01-01 14:19:00,
2014-01-01 08:20:00,46.8,46.8,30.12,SE,133,0.0,0.0,100,0.04,,,0.04,VWS V14.01,2014-01-01 14:20:00,
2014-01-01 08:21:00,46.8,46.8,30.12,SE,133,0.0,0.0,100,0.04,,,0.04,VWS V14.01,2014-01-01 14:21:00,
2014-01-01 08:22:00,46.8,46.8,30.12,SE,134,0.0,0.0,100,0.04,,,0.04,VWS V14.01,2014-01-01 14:22:00,
2014-01-01 08:23:00,46.9,46.9,30.12,NNE,24,0.0,0.0,100,0.04,,,0.04,VWS V14.01,2014-01-01 14:23:00,
2014-01-01 08:24:00,46.9,46.9,30.12,NNE,24,0.0,0.0,100,0.04,,,0.04,VWS V14.01,2014-01-01 14:24:00,
2014-01-01 08:25:00,46.9,46.9,30.12,SE,125,0.0,0.0,100,0.04,,,0.04,VWS V14.01,2014-01-01 14:25:00,
2014-01-01 08:26:00,46.9,46.9,30.12,SE,125,0.0,0.0,100,0.04,,,0.04,VWS V14.01,2014-01-01 14:26:00,
2014-01-01 08:27:00,46.9,46.9,30.12,SE,125,0.0,0.0,100,0.04,,,0.04,VWS V14.01,2014-01-01 14:27:00,
2014-01-01 08:28:00,46.9,46.9,30.12,SE,125,0.0,0.0,100,0.04,,,0.04,VWS V14.01,2014-01-01 14:28:00,
2014-01-01 08:29:00,46.9,46.9,30.12,SE,125,0.0,0.0,100,0.04,,,0.04,VWS V14.01,2014-01-01 14:29:00,
2014-01-01 08:30:00,47.1,47.1,30.12,SE,125,0.0,0.0,100,0.04,,,0.04,VWS V14.01,2014-01-01 14:30:00,
2014-01-01 08:31:00,47.1,47.1,30.12,SE,124,0.0,0.0,100,0.04,,,0.04,VWS V14.01,2014-01-01 14:31:00,
2014-01-01 08:32:00,47.1,47.1,30.15,SE,125,0.0,0.0,100,0.04,,,0.04,VWS V14.01,2014-01-01 14:32:00,
2014-01-01 08:33:00,47.3,47.3,30.15,ESE,117,0.0,0.0,100,0.04,,,0.04,VWS V14.01,2014-01-01 14:33:00,
2014-01-01 08:34:00,47.3,47.3,30.15,ESE,117,0.0,0.0,100,0.04,,,0.04,VWS V14.01,2014-01-01 14:34:00,
2014-01-01 08:35:00,47.3,47.3,30.15,South,169,0.0,0.0,100,0.04,,,0.04,VWS V14.01,2014-01-01 14:35:00,
2014-01-01 08:36:00,47.3,47.3,30.15,SE,132,0.0,0.0,100,0.04,,,0.04,VWS V14.01,2014-01-01 14:36:00,
2014-01-01 08:37:00,47.3,47.3,30.15,SE,132,0.0,0.0,100,0.04,,,0.04,VWS V14.01,2014-01-01 14:37:00,
2014-01-01 08:38:00,47.3,47.3,30.15,SE,129,0.0,0.0,100,0.04,,,0.04,VWS V14.01,2014-01-01 14:38:00,
2014-01-01 08:39:00,47.3,47.3,30.15,SE,125,2.7,5.4,100,0.04,,,0.04,VWS V14.01,2014-01-01 14:39:00,
2014-01-01 08:40:00,47.3,47.3,30.15,SE,126,0.0,0.0,100,0.04,,,0.04,VWS V14.01,2014-01-01 14:40:00,
2014-01-01 08:41:00,47.3,47.3,30.15,SE,126,0.0,0.0,100,0.04,,,0.04,VWS V14.01,2014-01-01 14:41:00,
2014-01-01 08:42:00,47.3,47.3,30.15,SE,126,0.0,0.0,100,0.04,,,0.04,VWS V14.01,2014-01-01 14:42:00,
2014-01-01 08:43:00,47.3,47.3,30.15,SE,126,0.0,0.0,100,0.04,,,0.04,VWS V14.01,2014-01-01 14:43:00,
2014-01-01 08:44:00,47.3,47.3,30.15,SE,126,0.0,0.0,100,0.04,,,0.04,VWS V14.01,2014-01-01 14:44:00,
2014-01-01 08:45:00,47.5,47.5,30.15,SE,126,0.0,0.0,100,0.04,,,0.04,VWS V14.01,2014-01-01 14:45:00,
2014-01-01 08:46:00,47.5,47.5,30.15,SE,126,0.0,0.0,100,0.04,,,0.04,VWS V14.01,2014-01-01 14:46:00,
2014-01-01 08:47:00,47.5,47.5,30.15,SSE,153,0.0,0.0,100,0.04,,,0.04,VWS V14.01,2014-01-01 14:47:00,
2014-01-01 08:48:00,47.5,47.5,30.15,SE,124,0.0,0.0,100,0.04,,,0.04,VWS V14.01,2014-01-01 14:48:00,
2014-01-01 08:49:00,47.5,47.5,30.15,SE,124,0.0,0.0,100,0.04,,,0.04,VWS V14.01,2014-01-01 14:49:00,
2014-01-01 08:50:00,47.7,47.7,30.15,ENE,74,0.0,0.0,100,0.04,,,0.04,VWS V14.01,2014-01-01 14:50:00,
2014-01-01 08:51:00,47.7,47.7,30.15,ENE,74,0.0,0.0,100,0.04,,,0.04,VWS V14.01,2014-01-01 14:51:00,
2014-01-01 08:52:00,47.7,47.7,30.15,ENE,75,0.0,0.0,100,0.04,,,0.04,VWS V14.01,2014-01-01 14:52:00,
2014-01-01 08:53:00,47.7,47.7,30.15,ENE,75,0.0,0.0,100,0.04,,,0.04,VWS V14.01,2014-01-01 14:53:00,
2014-01-01 08:54:00,47.7,47.7,30.15,ENE,74,0.0,0.0,100,0.04,,,0.04,VWS V14.01,2014-01-01 14:54:00,
2014-01-01 08:55:00,47.7,47.7,30.15,SE,136,0.0,0.0,100,0.04,,,0.04,VWS V14.01,2014-01-01 14:55:00,
2014-01-01 08:56:00,47.8,47.8,30.15,SSE,147,0.0,0.0,100,0.04,,,0.04,VWS V14.01,2014-01-01 14:56:00,
2014-01-01 08:57:00,47.8,47.8,30.15,SE,142,0.0,0.0,100,0.04,,,0.04,VWS V14.01,2014-01-01 14:57:00,
2014-01-01 08:58:00,47.8,47.8,30.15,SE,142,0.0,0.0,100,0.04,,,0.04,VWS V14.01,2014-01-01 14:58:00,
2014-01-01 08:59:00,47.8,47.8,30.15,SE,141,0.0,0.0,100,0.04,,,0.04,VWS V14.01,2014-01-01 14:59:00,
2014-01-01 09:00:00,48.0,48.0,30.15,East,93,0.0,0.0,100,0.04,,,0.04,VWS V14.01,2014-01-01 15:00:00,
2014-01-01 09:01:00,48.0,48.0,30.15,East,93,0.0,0.0,100,0.04,,,0.04,VWS V14.01,2014-01-01 15:01:00,
2014-01-01 09:02:00,48.0,48.0,30.15,East,94,0.0,0.0,100,0.04,,,0.04,VWS V14.01,2014-01-01 15:02:00,
2014-01-01 09:03:00,48.0,48.0,30.15,East,93,0.0,0.0,100,0.00,,,0.04,VWS V14.01,2014-01-01 15:03:00,
2014-01-01 09:04:00,48.0,48.0,30.15,East,93,0.0,0.0,100,0.00,,,0.04,VWS V14.01,2014-01-01 15:04:00,
2014-01-01 09:05:00,48.2,48.2,30.15,South,181,0.0,0.0,100,0.00,,,0.04,VWS V14.01,2014-01-01 15:05:00,
2014-01-01 09:06:00,48.2,48.2,30.15,South,181,0.0,0.0,100,0.00,,,0.04,VWS V14.01,2014-01-01 15:06:00,
2014-01-01 09:07:00,48.2,48.2,30.15,ESE,105,0.0,0.0,100,0.00,,,0.04,VWS V14.01,2014-01-01 15:07:00,
2014-01-01 09:08:00,48.2,48.2,30.15,SE,140,2.7,3.6,100,0.00,,,0.04,VWS V14.01,2014-01-01 15:08:00,
2014-01-01 09:09:00,48.2,48.2,30.15,ESE,123,0.0,4.0,100,0.00,,,0.04,VWS V14.01,2014-01-01 15:09:00,
2014-01-01 09:10:00,48.2,48.2,30.15,ESE,123,0.0,0.0,100,0.00,,,0.04,VWS V14.01,2014-01-01 15:10:00,
2014-01-01 09:11:00,48.4,48.4,30.15,ESE,123,0.0,0.0,100,0.00,,,0.04,VWS V14.01,2014-01-01 15:11:00,
2014-01-01 09:12:00,48.4,48.4,30.15,ESE,123,0.0,0.0,100,0.00,,,0.04,VWS V14.01,2014-01-01 15:12:00,
2014-01-01 09:13:00,48.4,48.4,30.15,SE,124,0.0,0.0,100,0.00,,,0.04,VWS V14.01,2014-01-01 15:13:00,
2014-01-01 09:14:00,48.4,48.4,30.15,ESE,123,0.0,0.0,100,0.00,,,0.04,VWS V14.01,2014-01-01 15:14:00,
2014-01-01 09:15:00,48.6,48.6,30.15,East,93,0.0,0.0,100,0.00,,,0.04,VWS V14.01,2014-01-01 15:15:00,
2014-01-01 09:16:00,48.6,48.6,30.15,East,93,0.0,0.0,100,0.00,,,0.04,VWS V14.01,2014-01-01 15:16:00,
2014-01-01 09:17:00,48.6,48.6,30.15,East,93,0.0,0.0,100,0.00,,,0.04,VWS V14.01,2014-01-01 15:17:00,
2014-01-01 09:18:00,48.6,48.6,30.15,East,93,0.0,0.0,100,0.00,,,0.04,VWS V14.01,2014-01-01 15:18:00,
2014-01-01 09:19:00,48.6,48.6,30.15,SE,129,0.0,0.0,100,0.00,,,0.04,VWS V14.01,2014-01-01 15:19:00,
2014-01-01 09:20:00,48.7,48.7,30.15,SE,130,3.1,4.0,100,0.00,,,0.04,VWS V14.01,2014-01-01 15:20:00,
2014-01-01 09:21:00,48.7,48.7,30.15,SE,130,0.0,4.0,100,0.00,,,0.04,VWS V14.01,2014-01-01 15:21:00,
2014-01-01 09:22:00,48.7,48.7,30.15,SE,131,2.7,3.1,100,0.00,,,0.04,VWS V14.01,2014-01-01 15:22:00,
2014-01-01 09:23:00,48.7,48.7,30.15,SE,131,0.0,2.7,100,0.00,,,0.04,VWS V14.01,2014-01-01 15:23:00,
2014-01-01 09:24:00,48.7,48.7,30.15,SE,131,0.0,0.0,100,0.00,,,0.04,VWS V14.01,2014-01-01 15:24:00,
2014-01-01 09:25:00,48.7,48.7,30.15,SE,131,0.0,0.0,100,0.00,,,0.04,VWS V14.01,2014-01-01 15:25:00,
2014-01-01 09:26:00,48.7,48.7,30.15,SE,131,0.0,0.0,100,0.00,,,0.04,VWS V14.01,2014-01-01 15:26:00,
2014-01-01 09:27:00,48.7,48.7,30.15,SE,131,0.0,0.0,100,0.00,,,0.04,VWS V14.01,2014-01-01 15:27:00,
2014-01-01 09:28:00,48.9,48.9,30.15,SE,131,0.0,0.0,100,0.00,,,0.04,VWS V14.01,2014-01-01 15:28:00,
2014-01-01 09:29:00,48.9,48.9,30.15,SE,131,0.0,0.0,100,0.00,,,0.04,VWS V14.01,2014-01-01 15:29:00,
2014-01-01 09:30:00,48.9,48.9,30.15,SE,131,0.0,0.0,100,0.00,,,0.04,VWS V14.01,2014-01-01 15:30:00,
2014-01-01 09:31:00,48.9,48.9,30.15,SE,131,0.0,0.0,100,0.00,,,0.04,VWS V14.01,2014-01-01 15:31:00,
2014-01-01 09:32:00,48.9,48.9,30.15,SE,131,0.0,0.0,100,0.00,,,0.04,VWS V14.01,2014-01-01 15:32:00,
2014-01-01 09:33:00,49.1,49.1,30.15,SE,131,0.0,0.0,100,0.00,,,0.04,VWS V14.01,2014-01-01 15:33:00,
2014-01-01 09:34:00,49.1,49.1,30.15,SE,131,0.0,0.0,100,0.00,,,0.04,VWS V14.01,2014-01-01 15:34:00,
2014-01-01 09:35:00,49.3,49.3,30.15,SE,131,0.0,0.0,100,0.00,,,0.04,VWS V14.01,2014-01-01 15:35:00,
2014-01-01 09:36:00,49.3,49.3,30.15,SE,131,0.0,0.0,100,0.00,,,0.04,VWS V14.01,2014-01-01 15:36:00,
2014-01-01 09:37:00,49.3,49.3,30.15,SE,131,0.0,0.0,100,0.00,,,0.04,VWS V14.01,2014-01-01 15:37:00,
2014-01-01 09:38:00,49.3,49.3,30.15,SE,131,0.0,0.0,100,0.00,,,0.04,VWS V14.01,2014-01-01 15:38:00,
2014-01-01 09:39:00,49.5,49.5,30.15,SE,131,0.0,0.0,100,0.00,,,0.04,VWS V14.01,2014-01-01 15:39:00,
2014-01-01 09:40:00,49.5,49.5,30.15,SE,131,0.0,0.0,100,0.00,,,0.04,VWS V14.01,2014-01-01 15:40:00,
2014-01-01 09:41:00,49.5,49.5,30.15,SE,131,0.0,0.0,100,0.00,,,0.04,VWS V14.01,2014-01-01 15:41:00,
2014-01-01 09:42:00,49.5,49.5,30.15,SE,131,0.0,0.0,100,0.00,,,0.04,VWS V14.01,2014-01-01 15:42:00,
2014-01-01 09:43:00,49.6,49.6,30.15,SE,131,0.0,0.0,100,0.00,,,0.04,VWS V14.01,2014-01-01 15:43:00,
2014-01-01 09:44:00,49.6,49.6,30.15,SE,131,0.0,0.0,100,0.00,,,0.04,VWS V14.01,2014-01-01 15:44:00,
2014-01-01 09:45:00,49.6,49.6,30.15,SE,131,0.0,0.0,100,0.00,,,0.04,VWS V14.01,2014-01-01 15:45:00,
2014-01-01 09:46:00,49.6,49.6,30.15,SE,131,0.0,0.0,100,0.00,,,0.04,VWS V14.01,2014-01-01 15:46:00,
2014-01-01 09:47:00,49.6,49.6,30.15,SE,131,0.0,0.0,100,0.00,,,0.04,VWS V14.01,2014-01-01 15:47:00,
2014-01-01 09:48:00,49.8,49.8,30.15,SE,131,0.0,0.0,100,0.00,,,0.04,VWS V14.01,2014-01-01 15:48:00,
2014-01-01 09:49:00,49.8,49.8,30.15,SE,131,0.0,0.0,100,0.00,,,0.04,VWS V14.01,2014-01-01 15:49:00,
2014-01-01 09:50:00,49.8,49.8,30.15,East,79,0.0,0.0,100,0.00,,,0.04,VWS V14.01,2014-01-01 15:50:00,
2014-01-01 09:51:00,49.8,49.8,30.15,East,79,0.0,0.0,100,0.00,,,0.04,VWS V14.01,2014-01-01 15:51:00,
2014-01-01 09:52:00,49.8,49.8,30.15,East,79,0.0,0.0,100,0.00,,,0.04,VWS V14.01,2014-01-01 15:52:00,
2014-01-01 09:53:00,50.0,50.0,30.15,SE,128,0.0,0.0,100,0.00,,,0.04,VWS V14.01,2014-01-01 15:53:00,
2014-01-01 09:54:00,50.0,50.0,30.15,ENE,74,0.0,0.0,100,0.00,,,0.04,VWS V14.01,2014-01-01 15:54:00,
2014-01-01 09:55:00,50.0,50.0,30.15,ENE,73,0.0,0.0,100,0.00,,,0.04,VWS V14.01,2014-01-01 15:55:00,
2014-01-01 09:56:00,50.0,50.0,30.15,ENE,73,0.0,0.0,100,0.00,,,0.04,VWS V14.01,2014-01-01 15:56:00,
2014-01-01 09:57:00,50.2,50.2,30.15,ENE,73,0.0,0.0,100,0.00,,,0.04,VWS V14.01,2014-01-01 15:57:00,
2014-01-01 09:58:00,50.2,50.2,30.15,ENE,74,0.0,0.0,100,0.00,,,0.04,VWS V14.01,2014-01-01 15:58:00,
2014-01-01 09:59:00,50.2,50.2,30.15,ENE,73,0.0,0.0,100,0.00,,,0.04,VWS V14.01,2014-01-01 15:59:00,
2014-01-01 10:00:00,50.4,50.4,30.15,NE,54,0.0,0.0,100,0.00,,,0.04,VWS V14.01,2014-01-01 16:00:00,
2014-01-01 10:01:00,50.4,50.4,30.15,NE,54,0.0,0.0,100,0.00,,,0.04,VWS V14.01,2014-01-01 16:01:00,
2014-01-01 10:02:00,50.4,50.4,30.15,NE,54,0.0,0.0,100,0.00,,,0.04,VWS V14.01,2014-01-01 16:02:00,
2014-01-01 10:03:00,50.4,50.4,30.15,NE,54,0.0,0.0,100,0.00,,,0.04,VWS V14.01,2014-01-01 16:03:00,
2014-01-01 10:04:00,50.5,50.5,30.15,NE,54,0.0,0.0,100,0.00,,,0.04,VWS V14.01,2014-01-01 16:04:00,
2014-01-01 10:05:00,50.5,50.5,30.15,NE,55,0.0,0.0,100,0.00,,,0.04,VWS V14.01,2014-01-01 16:05:00,
2014-01-01 10:06:00,50.5,50.5,30.15,NE,54,0.0,0.0,100,0.00,,,0.04,VWS V14.01,2014-01-01 16:06:00,
2014-01-01 10:07:00,50.7,50.7,30.15,NE,54,0.0,0.0,100,0.00,,,0.04,VWS V14.01,2014-01-01 16:07:00,
2014-01-01 10:08:00,50.7,50.7,30.15,NE,54,0.0,0.0,100,0.00,,,0.04,VWS V14.01,2014-01-01 16:08:00,
2014-01-01 10:09:00,50.7,50.7,30.15,NE,55,0.0,0.0,100,0.00,,,0.04,VWS V14.01,2014-01-01 16:09:00,
2014-01-01 10:10:00,50.9,50.9,30.15,ENE,72,0.0,0.0,100,0.00,,,0.04,VWS V14.01,2014-01-01 16:10:00,
2014-01-01 12:25:00,58.5,57.9,30.06,SE,127,3.1,3.1,98,0.00,,,0.00,VWS V14.01,2014-01-01 18:25:00,
2014-01-01 12:26:00,58.5,57.9,30.06,SE,127,0.0,3.1,98,0.00,,,0.04,VWS V14.01,2014-01-01 18:26:00,
2014-01-01 12:27:00,58.5,57.6,30.06,East,91,0.0,3.1,97,0.00,,,0.04,VWS V14.01,2014-01-01 18:27:00,
2014-01-01 12:28:00,58.5,57.6,30.06,SSE,168,3.6,4.0,97,0.00,,,0.04,VWS V14.01,2014-01-01 18:28:00,
2014-01-01 12:29:00,58.5,57.6,30.06,ESE,114,4.0,4.0,97,0.00,,,0.04,VWS V14.01,2014-01-01 18:29:00,
2014-01-01 12:30:00,58.5,57.3,30.06,SE,127,0.0,2.2,96,0.00,,,0.04,VWS V14.01,2014-01-01 18:30:00,
2014-01-01 12:31:00,58.5,57.3,30.06,SE,143,0.0,2.2,96,0.00,,,0.04,VWS V14.01,2014-01-01 18:31:00,
2014-01-01 12:32:00,58.5,57.0,30.06,East,86,3.6,6.7,95,0.00,,,0.04,VWS V14.01,2014-01-01 18:32:00,
2014-01-01 12:33:00,58.6,57.2,30.06,ESE,117,0.0,3.6,95,0.00,,,0.04,VWS V14.01,2014-01-01 18:33:00,
2014-01-01 12:34:00,58.6,57.2,30.06,ESE,106,3.6,3.6,95,0.00,,,0.04,VWS V14.01,2014-01-01 18:34:00,
2014-01-01 12:35:00,58.8,57.4,30.06,ENE,58,0.0,0.0,95,0.00,,,0.04,VWS V14.01,2014-01-01 18:35:00,
2014-01-01 12:36:00,58.8,57.4,30.06,ENE,58,0.0,0.0,95,0.00,,,0.04,VWS V14.01,2014-01-01 18:36:00,
2014-01-01 12:37:00,58.8,57.4,30.06,SE,124,3.1,3.1,95,0.00,,,0.04,VWS V14.01,2014-01-01 18:37:00,
2014-01-01 12:38:00,58.8,57.1,30.06,East,100,2.2,3.1,94,0.00,,,0.04,VWS V14.01,2014-01-01 18:38:00,
2014-01-01 12:39:00,58.8,57.1,30.06,SE,126,3.6,4.5,94,0.00,,,0.04,VWS V14.01,2014-01-01 18:39:00,
2014-01-01 12:40:00,58.6,56.9,30.06,East,84,3.1,4.0,94,0.00,,,0.04,VWS V14.01,2014-01-01 18:40:00,
2014-01-01 12:41:00,58.6,56.6,30.06,East,84,0.0,4.0,93,0.00,,,0.04,VWS V14.01,2014-01-01 18:41:00,
2014-01-01 12:42:00,58.6,56.6,30.06,SE,145,3.6,4.5,93,0.00,,,0.04,VWS V14.01,2014-01-01 18:42:00,
2014-01-01 12:43:00,58.8,56.8,30.06,East,93,0.0,4.0,93,0.00,,,0.04,VWS V14.01,2014-01-01 18:43:00,
2014-01-01 12:44:00,58.8,56.8,30.06,East,93,0.0,0.0,93,0.00,,,0.04,VWS V14.01,2014-01-01 18:44:00,
2014-01-01 12:45:00,58.8,56.8,30.06,SE,138,0.0,0.0,93,0.00,,,0.04,VWS V14.01,2014-01-01 18:45:00,
2014-01-01 12:46:00,58.8,56.8,30.06,East,94,0.0,3.1,93,0.00,,,0.04,VWS V14.01,2014-01-01 18:46:00,
2014-01-01 12:47:00,58.8,56.5,30.06,ESE,103,0.0,0.0,92,0.00,,,0.04,VWS V14.01,2014-01-01 18:47:00,
2014-01-01 12:48:00,58.8,56.5,30.03,ESE,103,0.0,0.0,92,0.00,,,0.04,VWS V14.01,2014-01-01 18:48:00,
2014-01-01 12:49:00,58.8,56.5,30.03,ESE,103,0.0,0.0,92,0.00,,,0.04,VWS V14.01,2014-01-01 18:49:00,
2014-01-01 12:50:00,58.8,56.5,30.03,ESE,117,0.0,0.0,92,0.00,,,0.04,VWS V14.01,2014-01-01 18:50:00,
2014-01-01 12:51:00,58.8,56.5,30.03,SE,140,0.0,0.0,92,0.00,,,0.04,VWS V14.01,2014-01-01 18:51:00,
2014-01-01 12:52:00,58.8,56.2,30.03,SE,141,0.0,0.0,91,0.00,,,0.04,VWS V14.01,2014-01-01 18:52:00,
2014-01-01 12:53:00,58.8,56.2,30.03,SE,129,0.0,0.0,91,0.00,,,0.04,VWS V14.01,2014-01-01 18:53:00,
2014-01-01 12:54:00,58.8,56.2,30.03,ESE,123,0.0,3.6,91,0.00,,,0.04,VWS V14.01,2014-01-01 18:54:00,
2014-01-01 12:55:00,59.0,56.1,30.03,East,98,0.0,2.7,90,0.00,,,0.04,VWS V14.01,2014-01-01 18:55:00,
2014-01-01 12:56:00,59.0,56.1,30.03,SE,125,0.0,2.7,90,0.00,,,0.04,VWS V14.01,2014-01-01 18:56:00,
2014-01-01 12:57:00,59.0,56.1,30.03,ESE,118,0.0,2.7,90,0.00,,,0.04,VWS V14.01,2014-01-01 18:57:00,
2014-01-01 12:58:00,59.0,56.1,30.03,SSE,165,4.0,4.0,90,0.00,,,0.04,VWS V14.01,2014-01-01 18:58:00,
2014-01-01 12:59:00,59.0,56.1,30.03,ENE,67,5.8,5.8,90,0.00,,,0.04,VWS V14.01,2014-01-01 18:59:00,
2014-01-01 13:00:00,59.2,56.0,30.03,East,99,0.0,0.0,89,0.00,,,0.04,VWS V14.01,2014-01-01 19:00:00,
2014-01-01 13:01:00,59.2,55.9,30.03,SE,137,0.0,0.0,89,0.00,,,0.04,VWS V14.01,2014-01-01 19:01:00,
2014-01-01 13:02:00,59.2,55.9,30.03,SSE,153,5.8,6.3,89,0.00,,,0.04,VWS V14.01,2014-01-01 19:02:00,
2014-01-01 13:03:00,59.2,55.9,30.03,SE,146,5.4,5.8,89,0.00,,,0.04,VWS V14.01,2014-01-01 19:03:00,
2014-01-01 13:04:00,59.2,55.9,30.03,SSE,167,4.0,5.4,89,0.00,,,0.04,VWS V14.01,2014-01-01 19:04:00,
2014-01-01 13:05:00,59.4,56.1,30.03,SSE,165,3.6,4.9,89,0.00,,,0.04,VWS V14.01,2014-01-01 19:05:00,
2014-01-01 13:06:00,59.4,56.1,30.03,South,175,2.7,4.9,89,0.00,,,0.04,VWS V14.01,2014-01-01 19:06:00,
2014-01-01 13:07:00,59.4,55.8,30.03,South,175,0.0,3.6,88,0.00,,,0.04,VWS V14.01,2014-01-01 19:07:00,
2014-01-01 13:08:00,59.4,55.8,30.03,SE,128,0.0,0.0,88,0.00,,,0.04,VWS V14.01,2014-01-01 19:08:00,
2014-01-01 13:09:00,59.4,55.8,30.03,NE,35,2.7,3.6,88,0.00,,,0.04,VWS V14.01,2014-01-01 19:09:00,
2014-01-01 13:10:00,59.4,55.8,30.03,ESE,123,0.0,5.4,88,0.00,,,0.04,VWS V14.01,2014-01-01 19:10:00,
2014-01-01 13:11:00,59.4,55.8,30.03,SE,128,0.0,5.4,88,0.00,,,0.04,VWS V14.01,2014-01-01 19:11:00,
2014-01-01 13:12:00,59.4,55.5,30.03,East,83,4.0,4.9,87,0.00,,,0.04,VWS V14.01,2014-01-01 19:12:00,
2014-01-01 13:13:00,59.4,55.5,30.03,SE,124,0.0,4.9,87,0.00,,,0.04,VWS V14.01,2014-01-01 19:13:00,
2014-01-01 13:14:00,59.4,55.5,30.03,SE,138,0.0,0.0,87,0.00,,,0.04,VWS V14.01,2014-01-01 19:14:00,
2014-01-01 13:15:00,59.4,55.5,30.03,East,97,0.0,3.6,87,0.00,,,0.04,VWS V14.01,2014-01-01 19:15:00,
2014-01-01 13:16:00,59.5,55.7,30.03,East,97,0.0,3.6,87,0.00,,,0.04,VWS V14.01,2014-01-01 19:16:00,
2014-01-01 13:17:00,59.5,55.7,30.03,SE,138,5.4,5.4,87,0.00,,,0.04,VWS V14.01,2014-01-01 19:17:00,
2014-01-01 13:18:00,59.5,55.7,30.03,NE,43,3.6,5.4,87,0.00,,,0.04,VWS V14.01,2014-01-01 19:18:00,
2014-01-01 13:19:00,59.5,55.7,30.03,South,180,0.0,4.0,87,0.00,,,0.04,VWS V14.01,2014-01-01 19:19:00,
2014-01-01 13:20:00,59.5,55.3,30.03,ENE,69,0.0,0.0,86,0.00,,,0.04,VWS V14.01,2014-01-01 19:20:00,
2014-01-01 13:21:00,59.5,55.3,30.03,ENE,69,0.0,0.0,86,0.00,,,0.04,VWS V14.01,2014-01-01 19:21:00,
2014-01-01 13:22:00,59.5,55.3,30.03,ESE,122,0.0,0.0,86,0.00,,,0.04,VWS V14.01,2014-01-01 19:22:00,
2014-01-01 13:23:00,59.7,55.5,30.03,East,98,4.9,5.4,86,0.00,,,0.04,VWS V14.01,2014-01-01 19:23:00,
2014-01-01 13:24:00,59.7,55.5,30.03,South,169,4.0,4.9,86,0.00,,,0.04,VWS V14.01,2014-01-01 19:24:00,
2014-01-01 13:25:00,59.7,55.5,30.03,South,170,4.0,4.0,86,0.00,,,0.04,VWS V14.01,2014-01-01 19:25:00,
2014-01-01 13:26:00,59.7,55.5,30.03,SSE,151,3.6,4.0,86,0.00,,,0.04,VWS V14.01,2014-01-01 19:26:00,
2014-01-01 13:27:00,59.7,55.5,30.03,ESE,116,4.0,4.0,86,0.00,,,0.04,VWS V14.01,2014-01-01 19:27:00,
2014-01-01 13:28:00,59.7,55.5,30.03,SSE,156,6.3,6.7,86,0.00,,,0.04,VWS V14.01,2014-01-01 19:28:00,
2014-01-01 13:29:00,59.7,55.5,30.03,SSE,154,5.8,6.3,86,0.00,,,0.04,VWS V14.01,2014-01-01 19:29:00,
2014-01-01 13:30:00,59.9,55.7,30.03,SE,137,5.8,5.8,86,0.00,,,0.04,VWS V14.01,2014-01-01 19:30:00,
2014-01-01 13:31:00,59.9,55.7,30.03,ESE,107,3.6,5.8,86,0.00,,,0.04,VWS V14.01,2014-01-01 19:31:00,
2014-01-01 13:32:00,59.9,55.4,30.03,South,173,5.4,5.8,85,0.00,,,0.04,VWS V14.01,2014-01-01 19:32:00,
2014-01-01 13:33:00,59.9,55.4,30.03,SE,135,0.0,5.4,85,0.00,,,0.04,VWS V14.01,2014-01-01 19:33:00,
2014-01-01 13:34:00,59.9,55.4,30.03,SE,126,0.0,0.0,85,0.00,,,0.04,VWS V14.01,2014-01-01 19:34:00,
2014-01-01 13:35:00,60.1,55.6,30.03,SE,126,3.1,3.1,85,0.00,,,0.04,VWS V14.01,2014-01-01 19:35:00,
2014-01-01 13:36:00,60.1,55.6,30.03,SE,126,3.1,3.1,85,0.00,,,0.04,VWS V14.01,2014-01-01 19:36:00,
2014-01-01 13:37:00,60.1,55.6,30.03,SSE,164,6.3,6.3,85,0.00,,,0.04,VWS V14.01,2014-01-01 19:37:00,
2014-01-01 13:38:00,60.1,55.6,30.03,ESE,105,7.6,7.6,85,0.00,,,0.04,VWS V14.01,2014-01-01 19:38:00,
2014-01-01 13:39:00,60.1,55.6,30.03,South,170,6.7,7.6,85,0.00,,,0.04,VWS V14.01,2014-01-01 19:39:00,
2014-01-01 13:40:00,60.1,55.6,30.03,SE,145,3.6,11.0,85,0.00,,,0.04,VWS V14.01,2014-01-01 19:40:00,
2014-01-01 13:41:00,60.1,55.6,30.03,SSE,167,3.1,11.0,85,0.00,,,0.04,VWS V14.01,2014-01-01 19:41:00,
2014-01-01 13:42:00,60.1,55.2,30.03,SSE,158,3.6,5.4,84,0.00,,,0.04,VWS V14.01,2014-01-01 19:42:00,
2014-01-01 13:43:00,60.1,55.2,30.03,SE,140,2.7,5.8,84,0.00,,,0.04,VWS V14.01,2014-01-01 19:43:00,
2014-01-01 13:44:00,60.1,55.2,30.03,SE,140,2.2,2.7,84,0.00,,,0.04,VWS V14.01,2014-01-01 19:44:00,
2014-01-01 13:45:00,60.3,55.4,30.03,South,174,0.0,0.0,84,0.00,,,0.04,VWS V14.01,2014-01-01 19:45:00,
2014-01-01 13:46:00,60.3,55.4,30.03,SSE,166,0.0,0.0,84,0.00,,,0.04,VWS V14.01,2014-01-01 19:46:00,
2014-01-01 13:47:00,60.3,55.4,30.00,South,186,3.6,5.4,84,0.00,,,0.04,VWS V14.01,2014-01-01 19:47:00,
2014-01-01 13:48:00,60.3,55.1,30.00,SSE,162,0.0,3.6,83,0.00,,,0.04,VWS V14.01,2014-01-01 19:48:00,
2014-01-01 13:49:00,60.3,55.1,30.00,ESE,114,2.7,3.6,83,0.00,,,0.04,VWS V14.01,2014-01-01 19:49:00,
2014-01-01 13:50:00,60.3,54.8,30.00,South,182,5.4,5.8,82,0.00,,,0.04,VWS V14.01,2014-01-01 19:50:00,
2014-01-01 13:51:00,60.3,54.8,30.00,SSE,148,2.2,5.8,82,0.00,,,0.04,VWS V14.01,2014-01-01 19:51:00,
2014-01-01 13:52:00,60.3,54.8,30.00,South,174,6.3,6.3,82,0.00,,,0.04,VWS V14.01,2014-01-01 19:52:00,
2014-01-01 13:53:00,60.3,54.8,30.00,SE,136,2.2,6.3,82,0.00,,,0.04,VWS V14.01,2014-01-01 19:53:00,
2014-01-01 13:54:00,60.3,54.8,30.00,SSE,164,2.7,5.4,82,0.00,,,0.04,VWS V14.01,2014-01-01 19:54:00,
2014-01-01 13:55:00,60.4,54.9,30.00,SE,138,2.2,3.6,82,0.00,,,0.04,VWS V14.01,2014-01-01 19:55:00,
2014-01-01 13:56:00,60.4,54.9,30.00,SE,138,0.0,3.6,82,0.00,,,0.04,VWS V14.01,2014-01-01 19:56:00,
2014-01-01 13:57:00,60.4,54.9,30.00,East,87,0.0,3.1,82,0.00,,,0.04,VWS V14.01,2014-01-01 19:57:00,
2014-01-01 13:58:00,60.4,54.9,30.00,SE,130,4.5,4.5,82,0.00,,,0.04,VWS V14.01,2014-01-01 19:58:00,
2014-01-01 13:59:00,60.4,54.6,30.00,SE,130,0.0,4.5,81,0.00,,,0.04,VWS V14.01,2014-01-01 19:59:00,
2014-01-01 14:00:00,60.4,54.6,30.00,South,178,5.4,5.4,81,0.00,,,0.04,VWS V14.01,2014-01-01 20:00:00,
2014-01-01 14:01:00,60.4,54.6,30.00,SSW,193,5.4,8.1,81,0.00,,,0.04,VWS V14.01,2014-01-01 20:01:00,
2014-01-01 14:02:00,60.6,54.8,30.00,SE,144,4.0,6.3,81,0.00,,,0.04,VWS V14.01,2014-01-01 20:02:00,
2014-01-01 14:03:00,60.6,54.8,30.00,SE,126,3.6,6.3,81,0.00,,,0.04,VWS V14.01,2014-01-01 20:03:00,
2014-01-01 14:04:00,60.6,54.8,30.00,South,175,4.9,4.9,81,0.00,,,0.04,VWS V14.01,2014-01-01 20:04:00,
2014-01-01 14:05:00,60.6,54.8,30.00,South,169,0.0,0.0,81,0.00,,,0.04,VWS V14.01,2014-01-01 20:05:00,
2014-01-01 14:06:00,60.6,54.8,30.00,South,169,0.0,0.0,81,0.00,,,0.04,VWS V14.01,2014-01-01 20:06:00,
2014-01-01 14:07:00,60.6,54.8,30.00,SE,131,0.0,4.5,81,0.00,,,0.04,VWS V14.01,2014-01-01 20:07:00,
2014-01-01 14:08:00,60.6,54.4,30.00,SE,131,0.0,0.0,80,0.00,,,0.04,VWS V14.01,2014-01-01 20:08:00,
2014-01-01 14:09:00,60.6,54.4,30.00,SE,131,0.0,0.0,80,0.00,,,0.04,VWS V14.01,2014-01-01 20:09:00,
2014-01-01 14:10:00,60.8,54.6,30.00,SE,135,0.0,2.2,80,0.00,,,0.04,VWS V14.01,2014-01-01 20:10:00,
2014-01-01 14:11:00,60.8,54.6,30.00,SSE,164,3.1,3.1,80,0.00,,,0.04,VWS V14.01,2014-01-01 20:11:00,
2014-01-01 14:12:00,60.8,54.3,30.00,SSE,164,5.4,5.8,79,0.00,,,0.04,VWS V14.01,2014-01-01 20:12:00,
2014-01-01 14:13:00,60.8,54.3,30.00,SE,140,4.0,8.3,79,0.00,,,0.04,VWS V14.01,2014-01-01 20:13:00,
2014-01-01 14:14:00,60.8,54.3,30.00,SE,138,4.0,5.8,79,0.00,,,0.04,VWS V14.01,2014-01-01 20:14:00,
2014-01-01 14:15:00,61.0,54.4,30.00,South,180,3.6,7.6,79,0.00,,,0.04,VWS V14.01,2014-01-01 20:15:00,
2014-01-01 14:16:00,61.0,54.4,30.00,East,92,6.3,7.6,79,0.00,,,0.04,VWS V14.01,2014-01-01 20:16:00,
2014-01-01 14:17:00,61.0,54.4,30.00,SE,133,5.4,6.3,79,0.00,,,0.04,VWS V14.01,2014-01-01 20:17:00,
2014-01-01 14:18:00,61.0,54.4,30.00,South,172,5.8,7.2,79,0.00,,,0.04,VWS V14.01,2014-01-01 20:18:00,
2014-01-01 14:19:00,61.0,54.1,30.00,SE,144,5.4,5.8,78,0.00,,,0.04,VWS V14.01,2014-01-01 20:19:00,
2014-01-01 14:20:00,61.0,54.1,30.00,ESE,114,4.0,4.9,78,0.00,,,0.04,VWS V14.01,2014-01-01 20:20:00,
2014-01-01 14:21:00,61.0,54.1,30.00,South,185,4.9,4.9,78,0.00,,,0.04,VWS V14.01,2014-01-01 20:21:00,
2014-01-01 14:22:00,61.0,53.7,30.00,SSE,156,0.0,4.9,77,0.00,,,0.04,VWS V14.01,2014-01-01 20:22:00,
2014-01-01 14:23:00,61.0,53.7,30.00,East,89,0.0,0.0,77,0.00,,,0.04,VWS V14.01,2014-01-01 20:23:00,
2014-01-01 14:24:00,61.2,53.9,30.00,SE,136,8.1,8.1,77,0.00,,,0.04,VWS V14.01,2014-01-01 20:24:00,
2014-01-01 14:25:00,61.2,54.3,30.00,East,90,0.0,3.6,78,0.00,,,0.04,VWS V14.01,2014-01-01 20:25:00,
2014-01-01 14:26:00,61.2,54.3,30.00,East,90,0.0,3.6,78,0.00,,,0.04,VWS V14.01,2014-01-01 20:26:00,
2014-01-01 14:27:00,61.2,54.3,30.00,SE,137,0.0,4.0,78,0.00,,,0.04,VWS V14.01,2014-01-01 20:27:00,
2014-01-01 14:28:00,61.2,53.9,30.00,SSE,155,0.0,0.0,77,0.00,,,0.04,VWS V14.01,2014-01-01 20:28:00,
2014-01-01 14:29:00,61.2,53.9,30.00,SE,137,0.0,0.0,77,0.00,,,0.04,VWS V14.01,2014-01-01 20:29:00,
2014-01-01 14:30:00,61.3,54.1,30.00,SE,138,2.2,3.1,77,0.00,,,0.04,VWS V14.01,2014-01-01 20:30:00,
2014-01-01 14:31:00,61.3,54.1,30.00,SE,134,4.9,4.9,77,0.00,,,0.04,VWS V14.01,2014-01-01 20:31:00,
2014-01-01 14:32:00,61.3,54.1,30.00,SE,139,6.3,6.3,77,0.00,,,0.04,VWS V14.01,2014-01-01 20:32:00,
2014-01-01 14:33:00,61.3,54.1,30.00,SSE,165,6.3,6.3,77,0.00,,,0.04,VWS V14.01,2014-01-01 20:33:00,
2014-01-01 14:34:00,61.3,54.1,30.00,SE,125,5.4,6.3,77,0.00,,,0.04,VWS V14.01,2014-01-01 20:34:00,
2014-01-01 14:35:00,61.3,54.1,30.00,ESE,123,4.0,5.8,77,0.00,,,0.04,VWS V14.01,2014-01-01 20:35:00,
2014-01-01 14:36:00,61.3,53.7,30.00,SE,146,3.6,5.8,76,0.00,,,0.04,VWS V14.01,2014-01-01 20:36:00,
2014-01-01 14:37:00,61.3,53.7,30.00,SSE,151,5.8,5.8,76,0.00,,,0.04,VWS V14.01,2014-01-01 20:37:00,
2014-01-01 14:38:00,61.5,53.9,30.00,South,176,2.7,5.8,76,0.00,,,0.04,VWS V14.01,2014-01-01 20:38:00,
2014-01-01 14:39:00,61.5,53.9,30.00,SE,146,5.4,6.3,76,0.00,,,0.04,VWS V14.01,2014-01-01 20:39:00,
2014-01-01 14:40:00,61.5,53.9,30.00,East,84,0.0,0.0,76,0.00,,,0.04,VWS V14.01,2014-01-01 20:40:00,
2014-01-01 14:41:00,61.5,53.9,30.00,ENE,75,0.0,6.3,76,0.00,,,0.04,VWS V14.01,2014-01-01 20:41:00,
2014-01-01 14:42:00,61.5,53.9,30.00,SSE,162,5.4,5.4,76,0.00,,,0.04,VWS V14.01,2014-01-01 20:42:00,
2014-01-01 14:43:00,61.5,53.9,30.00,South,183,2.7,6.3,76,0.00,,,0.04,VWS V14.01,2014-01-01 20:43:00,
2014-01-01 14:44:00,61.7,54.1,30.00,SE,130,3.1,4.9,76,0.00,,,0.04,VWS V14.01,2014-01-01 20:44:00,
2014-01-01 14:45:00,61.7,54.1,30.00,SSW,203,0.0,5.8,76,0.00,,,0.04,VWS V14.01,2014-01-01 20:45:00,
2014-01-01 14:46:00,61.7,54.1,30.00,SSE,157,4.5,5.8,76,0.00,,,0.04,VWS V14.01,2014-01-01 20:46:00,
2014-01-01 14:47:00,61.7,54.1,30.00,South,170,4.0,5.8,76,0.00,,,0.04,VWS V14.01,2014-01-01 20:47:00,
2014-01-01 14:48:00,61.7,54.1,30.00,SE,137,2.7,4.0,76,0.00,,,0.04,VWS V14.01,2014-01-01 20:48:00,
2014-01-01 14:49:00,61.7,54.1,30.00,SSE,153,2.2,4.0,76,0.00,,,0.04,VWS V14.01,2014-01-01 20:49:00,
2014-01-01 14:50:00,61.7,54.1,30.00,South,178,5.8,8.1,76,0.00,,,0.04,VWS V14.01,2014-01-01 20:50:00,
2014-01-01 14:51:00,61.7,54.1,30.00,SSE,162,7.6,8.1,76,0.00,,,0.04,VWS V14.01,2014-01-01 20:51:00,
2014-01-01 14:52:00,61.7,54.1,30.00,SE,145,7.6,7.6,76,0.00,,,0.04,VWS V14.01,2014-01-01 20:52:00,
2014-01-01 14:53:00,61.7,54.1,30.00,South,184,6.3,7.6,76,0.00,,,0.04,VWS V14.01,2014-01-01 20:53:00,
2014-01-01 14:54:00,61.7,54.1,30.00,SE,142,3.1,6.3,76,0.00,,,0.04,VWS V14.01,2014-01-01 20:54:00,
2014-01-01 14:55:00,61.7,54.1,30.00,South,182,3.6,4.0,76,0.00,,,0.04,VWS V14.01,2014-01-01 20:55:00,
2014-01-01 14:56:00,61.7,54.1,30.00,South,183,3.6,4.0,76,0.00,,,0.04,VWS V14.01,2014-01-01 20:56:00,
2014-01-01 14:57:00,61.7,53.7,30.00,South,173,4.0,5.8,75,0.00,,,0.04,VWS V14.01,2014-01-01 20:57:00,
2014-01-01 14:58:00,61.7,54.1,30.00,South,173,3.1,4.0,76,0.00,,,0.04,VWS V14.01,2014-01-01 20:58:00,
2014-01-01 14:59:00,61.7,54.1,30.00,SSE,168,4.0,5.4,76,0.00,,,0.04,VWS V14.01,2014-01-01 20:59:00,
2014-01-01 15:00:00,61.7,54.1,30.00,SE,124,4.9,4.9,76,0.00,,,0.04,VWS V14.01,2014-01-01 21:00:00,
2014-01-01 15:01:00,61.7,54.1,30.00,ESE,123,2.7,4.9,76,0.00,,,0.04,VWS V14.01,2014-01-01 21:01:00,
2014-01-01 15:02:00,61.7,54.1,30.00,South,182,2.7,3.6,76,0.00,,,0.04,VWS V14.01,2014-01-01 21:02:00,
2014-01-01 15:03:00,61.7,54.1,30.00,South,179,0.0,3.1,76,0.00,,,0.04,VWS V14.01,2014-01-01 21:03:00,
2014-01-01 15:04:00,61.7,54.1,30.00,South,179,0.0,0.0,76,0.00,,,0.04,VWS V14.01,2014-01-01 21:04:00,
2014-01-01 15:05:00,61.7,54.1,30.00,SE,144,0.0,0.0,76,0.00,,,0.04,VWS V14.01,2014-01-01 21:05:00,
2014-01-01 15:06:00,61.7,54.1,30.00,SE,144,0.0,0.0,76,0.00,,,0.04,VWS V14.01,2014-01-01 21:06:00,
2014-01-01 15:07:00,61.7,54.1,30.00,SE,144,3.6,6.3,76,0.00,,,0.04,VWS V14.01,2014-01-01 21:07:00,
2014-01-01 15:08:00,61.7,54.1,30.00,SE,132,4.0,5.8,76,0.00,,,0.04,VWS V14.01,2014-01-01 21:08:00,
2014-01-01 15:09:00,61.7,54.1,30.00,SE,132,0.0,4.0,76,0.00,,,0.04,VWS V14.01,2014-01-01 21:09:00,
2014-01-01 15:10:00,61.7,54.1,30.00,SE,133,0.0,0.0,76,0.00,,,0.04,VWS V14.01,2014-01-01 21:10:00,
2014-01-01 15:11:00,61.7,54.1,30.00,SE,133,0.0,0.0,76,0.00,,,0.04,VWS V14.01,2014-01-01 21:11:00,
2014-01-01 15:12:00,61.7,54.1,30.00,SE,143,3.1,5.4,76,0.00,,,0.04,VWS V14.01,2014-01-01 21:12:00,
2014-01-01 15:13:00,61.7,54.1,30.00,SE,143,0.0,3.1,76,0.00,,,0.04,VWS V14.01,2014-01-01 21:13:00,
2014-01-01 15:14:00,61.7,54.1,30.00,SE,143,0.0,0.0,76,0.00,,,0.04,VWS V14.01,2014-01-01 21:14:00,
2014-01-01 15:15:00,61.7,54.1,30.00,South,174,5.8,5.8,76,0.00,,,0.04,VWS V14.01,2014-01-01 21:15:00,
2014-01-01 15:16:00,61.7,54.1,30.00,South,174,2.7,5.8,76,0.00,,,0.04,VWS V14.01,2014-01-01 21:16:00,
2014-01-01 15:17:00,61.7,54.1,30.00,SE,139,3.6,4.0,76,0.00,,,0.04,VWS V14.01,2014-01-01 21:17:00,
2014-01-01 15:18:00,61.9,54.2,30.00,SE,141,5.4,5.8,76,0.00,,,0.04,VWS V14.01,2014-01-01 21:18:00,
2014-01-01 15:19:00,61.9,54.2,30.00,SE,141,0.0,5.4,76,0.00,,,0.04,VWS V14.01,2014-01-01 21:19:00,
2014-01-01 15:20:00,61.7,54.1,30.00,SSE,152,2.7,3.1,76,0.00,,,0.04,VWS V14.01,2014-01-01 21:20:00,
2014-01-01 15:21:00,61.7,54.1,30.00,SE,127,4.0,4.0,76,0.00,,,0.04,VWS V14.01,2014-01-01 21:21:00,
2014-01-01 15:22:00,61.7,54.1,30.00,SE,124,3.6,4.0,76,0.00,,,0.04,VWS V14.01,2014-01-01 21:22:00,
2014-01-01 15:23:00,61.7,54.1,30.00,SE,137,4.0,5.4,76,0.00,,,0.04,VWS V14.01,2014-01-01 21:23:00,
2014-01-01 15:24:00,61.7,54.1,30.00,ESE,102,4.9,4.9,76,0.00,,,0.04,VWS V14.01,2014-01-01 21:24:00,
2014-01-01 15:25:00,61.7,54.1,30.00,ESE,123,0.0,4.0,76,0.00,,,0.04,VWS V14.01,2014-01-01 21:25:00,
2014-01-01 15:26:00,61.7,54.1,30.00,ESE,123,0.0,4.0,76,0.00,,,0.04,VWS V14.01,2014-01-01 21:26:00,
2014-01-01 15:27:00,61.7,54.1,30.00,SE,137,0.0,0.0,76,0.00,,,0.04,VWS V14.01,2014-01-01 21:27:00,
2014-01-01 15:28:00,61.7,54.1,30.00,SSE,156,2.7,4.0,76,0.00,,,0.04,VWS V14.01,2014-01-01 21:28:00,
2014-01-01 15:29:00,61.7,54.1,30.00,SE,138,2.2,4.0,76,0.00,,,0.04,VWS V14.01,2014-01-01 21:29:00,
2014-01-01 15:30:00,61.7,54.1,30.00,South,169,3.1,3.1,76,0.00,,,0.04,VWS V14.01,2014-01-01 21:30:00,
2014-01-01 15:31:00,61.7,54.1,30.00,SSE,162,2.7,3.1,76,0.00,,,0.04,VWS V14.01,2014-01-01 21:31:00,
2014-01-01 15:32:00,61.7,54.1,29.97,SE,128,2.2,4.9,76,0.00,,,0.04,VWS V14.01,2014-01-01 21:32:00,
2014-01-01 15:33:00,61.7,54.1,29.97,South,172,5.4,5.8,76,0.00,,,0.04,VWS V14.01,2014-01-01 21:33:00,
2014-01-01 15:34:00,61.7,54.1,29.97,SSE,159,5.4,6.7,76,0.00,,,0.04,VWS V14.01,2014-01-01 21:34:00,
2014-01-01 15:35:00,61.7,54.1,29.97,SE,144,0.0,5.8,76,0.00,,,0.04,VWS V14.01,2014-01-01 21:35:00,
2014-01-01 15:36:00,61.7,54.1,29.97,SE,145,0.0,5.8,76,0.00,,,0.04,VWS V14.01,2014-01-01 21:36:00,
2014-01-01 15:37:00,61.7,54.1,29.97,SSE,148,4.0,4.9,76,0.00,,,0.04,VWS V14.01,2014-01-01 21:37:00,
2014-01-01 15:38:00,61.7,54.1,29.97,SE,137,3.1,5.8,76,0.00,,,0.04,VWS V14.01,2014-01-01 21:38:00,
2014-01-01 15:39:00,61.7,54.1,29.97,SE,137,0.0,4.0,76,0.00,,,0.04,VWS V14.01,2014-01-01 21:39:00,
2014-01-01 15:40:00,61.7,54.1,29.97,SE,137,0.0,0.0,76,0.00,,,0.04,VWS V14.01,2014-01-01 21:40:00,
2014-01-01 15:41:00,61.7,54.1,29.97,SE,137,0.0,0.0,76,0.00,,,0.04,VWS V14.01,2014-01-01 21:41:00,
2014-01-01 15:42:00,61.7,54.1,29.97,SE,137,3.6,3.6,76,0.00,,,0.04,VWS V14.01,2014-01-01 21:42:00,
2014-01-01 15:43:00,61.7,54.1,29.97,SE,136,2.2,5.4,76,0.00,,,0.04,VWS V14.01,2014-01-01 21:43:00,
2014-01-01 15:44:00,61.7,54.1,29.97,SE,136,0.0,2.2,76,0.00,,,0.04,VWS V14.01,2014-01-01 21:44:00,
2014-01-01 15:45:00,61.7,54.1,29.97,SE,136,2.7,3.1,76,0.00,,,0.04,VWS V14.01,2014-01-01 21:45:00,
2014-01-01 15:46:00,61.7,54.1,29.97,SE,136,0.0,3.1,76,0.00,,,0.04,VWS V14.01,2014-01-01 21:46:00,
2014-01-01 15:47:00,61.7,54.1,29.97,SSE,158,5.4,5.4,76,0.00,,,0.04,VWS V14.01,2014-01-01 21:47:00,
2014-01-01 15:48:00,61.7,54.1,29.97,South,175,5.8,5.8,76,0.00,,,0.04,VWS V14.01,2014-01-01 21:48:00,
2014-01-01 15:49:00,61.7,54.1,29.97,SE,144,3.6,6.3,76,0.00,,,0.04,VWS V14.01,2014-01-01 21:49:00,
2014-01-01 15:50:00,61.7,54.1,29.97,SE,143,2.7,3.6,76,0.00,,,0.04,VWS V14.01,2014-01-01 21:50:00,
2014-01-01 15:51:00,61.9,54.2,29.97,ESE,122,4.5,4.5,76,0.00,,,0.04,VWS V14.01,2014-01-01 21:51:00,
2014-01-01 15:52:00,61.9,54.2,29.97,SSE,150,2.7,5.4,76,0.00,,,0.04,VWS V14.01,2014-01-01 21:52:00,
2014-01-01 15:53:00,61.9,54.2,29.97,SSE,150,2.2,4.0,76,0.00,,,0.04,VWS V14.01,2014-01-01 21:53:00,
2014-01-01 15:54:00,61.9,54.2,29.97,SSE,168,3.1,4.9,76,0.00,,,0.04,VWS V14.01,2014-01-01 21:54:00,
2014-01-01 15:55:00,61.7,54.1,29.97,SSE,168,0.0,0.0,76,0.00,,,0.04,VWS V14.01,2014-01-01 21:55:00,
2014-01-01 15:56:00,61.7,54.1,29.97,SSE,168,0.0,0.0,76,0.00,,,0.04,VWS V14.01,2014-01-01 21:56:00,
2014-01-01 15:57:00,61.7,54.1,29.97,ESE,111,0.0,0.0,76,0.00,,,0.04,VWS V14.01,2014-01-01 21:57:00,
2014-01-01 15:58:00,61.7,54.1,29.97,ENE,60,0.0,0.0,76,0.00,,,0.04,VWS V14.01,2014-01-01 21:58:00,
2014-01-01 15:59:00,61.7,54.1,29.97,ESE,102,2.2,4.5,76,0.00,,,0.04,VWS V14.01,2014-01-01 21:59:00,
2014-01-01 16:00:00,61.7,54.1,29.97,ESE,115,3.1,3.6,76,0.00,,,0.04,VWS V14.01,2014-01-01 22:00:00,
2014-01-01 16:01:00,61.7,54.1,29.97,ESE,105,3.6,3.6,76,0.00,,,0.04,VWS V14.01,2014-01-01 22:01:00,
2014-01-01 16:02:00,61.7,54.1,29.97,SE,127,4.5,5.4,76,0.00,,,0.04,VWS V14.01,2014-01-01 22:02:00,
2014-01-01 16:03:00,61.5,53.9,29.97,SSE,156,0.0,4.5,76,0.00,,,0.04,VWS V14.01,2014-01-01 22:03:00,
2014-01-01 16:04:00,61.5,53.9,29.97,ESE,117,3.6,6.3,76,0.00,,,0.04,VWS V14.01,2014-01-01 22:04:00,
2014-01-01 16:05:00,61.5,53.9,29.97,ESE,120,2.7,3.6,76,0.00,,,0.04,VWS V14.01,2014-01-01 22:05:00,
2014-01-01 16:06:00,61.5,53.9,29.97,SSE,158,2.7,4.0,76,0.00,,,0.04,VWS V14.01,2014-01-01 22:06:00,
2014-01-01 16:07:00,61.5,53.9,29.97,SSE,159,3.1,4.0,76,0.00,,,0.04,VWS V14.01,2014-01-01 22:07:00,
2014-01-01 16:08:00,61.5,53.9,29.97,SE,143,2.2,3.1,76,0.00,,,0.04,VWS V14.01,2014-01-01 22:08:00,
2014-01-01 16:09:00,61.5,53.9,29.97,SE,143,0.0,2.2,76,0.00,,,0.04,VWS V14.01,2014-01-01 22:09:00,
2014-01-01 16:10:00,61.5,53.5,29.97,ESE,119,0.0,0.0,75,0.00,,,0.04,VWS V14.01,2014-01-01 22:10:00,
2014-01-01 16:11:00,61.5,53.9,29.97,ESE,117,0.0,0.0,76,0.00,,,0.04,VWS V14.01,2014-01-01 22:11:00,
2014-01-01 16:12:00,61.5,53.9,29.97,SE,141,2.7,5.8,76,0.00,,,0.04,VWS V14.01,2014-01-01 22:12:00,
2014-01-01 16:13:00,61.5,53.9,29.97,SE,133,3.1,3.1,76,0.00,,,0.04,VWS V14.01,2014-01-01 22:13:00,
2014-01-01 16:14:00,61.5,53.9,29.97,SE,127,4.0,4.0,76,0.00,,,0.04,VWS V14.01,2014-01-01 22:14:00,
2014-01-01 16:15:00,61.5,53.9,29.97,SE,126,0.0,0.0,76,0.00,,,0.04,VWS V14.01,2014-01-01 22:15:00,
2014-01-01 16:16:00,61.5,53.9,29.97,SE,131,0.0,0.0,76,0.00,,,0.04,VWS V14.01,2014-01-01 22:16:00,
2014-01-01 16:17:00,61.3,53.7,29.97,East,85,7.6,7.6,76,0.00,,,0.04,VWS V14.01,2014-01-01 22:17:00,
2014-01-01 16:18:00,61.3,53.7,29.97,ESE,122,2.7,7.6,76,0.00,,,0.04,VWS V14.01,2014-01-01 22:18:00,
2014-01-01 16:19:00,61.3,53.7,29.97,ESE,122,0.0,3.1,76,0.00,,,0.04,VWS V14.01,2014-01-01 22:19:00,
2014-01-01 16:20:00,61.3,53.7,29.97,East,80,0.0,0.0,76,0.00,,,0.04,VWS V14.01,2014-01-01 22:20:00,
2014-01-01 16:21:00,61.3,53.7,29.97,SE,131,5.4,5.4,76,0.00,,,0.04,VWS V14.01,2014-01-01 22:21:00,
2014-01-01 16:22:00,61.3,53.7,29.97,ESE,113,0.0,5.4,76,0.00,,,0.04,VWS V14.01,2014-01-01 22:22:00,
2014-01-01 16:23:00,61.3,53.7,29.97,SE,124,4.5,4.5,76,0.00,,,0.04,VWS V14.01,2014-01-01 22:23:00,
2014-01-01 16:24:00,61.3,53.7,29.97,SSE,152,0.0,4.5,76,0.00,,,0.04,VWS V14.01,2014-01-01 22:24:00,
2014-01-01 16:25:00,61.3,53.7,29.97,ESE,112,0.0,0.0,76,0.00,,,0.04,VWS V14.01,2014-01-01 22:25:00,
2014-01-01 16:26:00,61.3,53.7,29.97,ESE,112,0.0,0.0,76,0.00,,,0.04,VWS V14.01,2014-01-01 22:26:00,
2014-01-01 16:27:00,61.3,53.7,29.97,ENE,72,0.0,0.0,76,0.00,,,0.04,VWS V14.01,2014-01-01 22:27:00,
2014-01-01 16:28:00,61.3,53.7,29.97,ENE,72,0.0,0.0,76,0.00,,,0.04,VWS V14.01,2014-01-01 22:28:00,
2014-01-01 16:29:00,61.2,53.5,29.97,ENE,72,0.0,0.0,76,0.00,,,0.04,VWS V14.01,2014-01-01 22:29:00,
2014-01-01 16:30:00,61.2,53.5,29.97,ENE,72,0.0,0.0,76,0.00,,,0.04,VWS V14.01,2014-01-01 22:30:00,
2014-01-01 16:31:00,61.2,53.5,29.97,ENE,72,0.0,0.0,76,0.00,,,0.04,VWS V14.01,2014-01-01 22:31:00,
2014-01-01 16:32:00,61.2,53.5,29.97,ENE,72,0.0,0.0,76,0.00,,,0.04,VWS V14.01,2014-01-01 22:32:00,
2014-01-01 16:33:00,61.2,53.5,29.97,ENE,72,0.0,0.0,76,0.00,,,0.04,VWS V14.01,2014-01-01 22:33:00,
2014-01-01 16:34:00,61.2,53.5,29.97,ENE,72,0.0,0.0,76,0.00,,,0.04,VWS V14.01,2014-01-01 22:34:00,
2014-01-01 16:35:00,61.2,53.5,29.97,ENE,72,0.0,0.0,76,0.00,,,0.04,VWS V14.01,2014-01-01 22:35:00,
2014-01-01 16:36:00,61.2,53.5,29.97,ENE,72,0.0,0.0,76,0.00,,,0.04,VWS V14.01,2014-01-01 22:36:00,
2014-01-01 16:37:00,61.0,53.7,29.97,ENE,72,0.0,0.0,77,0.00,,,0.04,VWS V14.01,2014-01-01 22:37:00,
2014-01-01 16:38:00,61.0,53.7,29.97,ENE,72,0.0,0.0,77,0.00,,,0.04,VWS V14.01,2014-01-01 22:38:00,
2014-01-01 16:39:00,61.0,53.7,29.97,ESE,114,0.0,0.0,77,0.00,,,0.04,VWS V14.01,2014-01-01 22:39:00,
2014-01-01 16:40:00,61.0,53.7,29.97,SE,134,0.0,0.0,77,0.00,,,0.04,VWS V14.01,2014-01-01 22:40:00,
2014-01-01 16:41:00,61.0,53.7,29.97,SE,134,0.0,0.0,77,0.00,,,0.04,VWS V14.01,2014-01-01 22:41:00,
2014-01-01 16:42:00,61.0,53.7,29.97,East,89,0.0,0.0,77,0.00,,,0.04,VWS V14.01,2014-01-01 22:42:00,
2014-01-01 16:43:00,61.0,53.7,29.97,SE,145,0.0,0.0,77,0.00,,,0.04,VWS V14.01,2014-01-01 22:43:00,
2014-01-01 16:44:00,61.0,53.7,29.97,SE,126,5.8,5.8,77,0.00,,,0.04,VWS V14.01,2014-01-01 22:44:00,
2014-01-01 16:45:00,61.0,53.7,29.97,SE,134,0.0,4.0,77,0.00,,,0.04,VWS V14.01,2014-01-01 22:45:00,
2014-01-01 16:46:00,61.0,53.7,29.97,ENE,77,0.0,4.0,77,0.00,,,0.04,VWS V14.01,2014-01-01 22:46:00,
2014-01-01 16:47:00,61.0,53.7,29.97,SE,140,2.7,3.1,77,0.00,,,0.04,VWS V14.01,2014-01-01 22:47:00,
2014-01-01 16:48:00,61.0,53.7,29.97,SE,140,0.0,2.7,77,0.00,,,0.04,VWS V14.01,2014-01-01 22:48:00,
2014-01-01 16:49:00,60.8,53.5,29.97,East,98,0.0,0.0,77,0.00,,,0.04,VWS V14.01,2014-01-01 22:49:00,
2014-01-01 16:50:00,60.8,53.5,29.97,SSE,156,0.0,0.0,77,0.00,,,0.04,VWS V14.01,2014-01-01 22:50:00,
2014-01-01 16:51:00,60.8,53.5,29.97,SSE,159,0.0,0.0,77,0.00,,,0.04,VWS V14.01,2014-01-01 22:51:00,
2014-01-01 16:52:00,60.8,53.5,29.97,SE,133,0.0,0.0,77,0.00,,,0.04,VWS V14.01,2014-01-01 22:52:00,
2014-01-01 16:53:00,60.8,53.5,29.97,SE,127,0.0,0.0,77,0.00,,,0.04,VWS V14.01,2014-01-01 22:53:00,
2014-01-01 16:54:00,60.8,53.5,29.97,SE,132,0.0,0.0,77,0.00,,,0.04,VWS V14.01,2014-01-01 22:54:00,
2014-01-01 16:55:00,60.6,53.4,29.97,SE,132,0.0,0.0,77,0.00,,,0.04,VWS V14.01,2014-01-01 22:55:00,
2014-01-01 16:56:00,60.6,53.4,29.97,SE,125,0.0,0.0,77,0.00,,,0.04,VWS V14.01,2014-01-01 22:56:00,
2014-01-01 16:57:00,60.6,53.4,29.97,ESE,116,0.0,0.0,77,0.00,,,0.04,VWS V14.01,2014-01-01 22:57:00,
2014-01-01 16:58:00,60.6,53.7,29.97,ESE,116,0.0,0.0,78,0.00,,,0.04,VWS V14.01,2014-01-01 22:58:00,
2014-01-01 16:59:00,60.6,53.7,29.97,ESE,116,0.0,0.0,78,0.00,,,0.04,VWS V14.01,2014-01-01 22:59:00,
2014-01-01 17:00:00,60.6,53.7,29.97,ESE,116,0.0,0.0,78,0.00,,,0.04,VWS V14.01,2014-01-01 23:00:00,
2014-01-01 17:01:00,60.6,53.7,29.97,ESE,116,0.0,0.0,78,0.00,,,0.04,VWS V14.01,2014-01-01 23:01:00,
2014-01-01 17:02:00,60.6,53.7,29.97,ESE,116,0.0,0.0,78,0.00,,,0.04,VWS V14.01,2014-01-01 23:02:00,
2014-01-01 17:03:00,60.6,53.7,29.97,ESE,116,0.0,0.0,78,0.00,,,0.04,VWS V14.01,2014-01-01 23:03:00,
2014-01-01 17:04:00,60.6,53.7,29.97,ESE,116,0.0,0.0,78,0.00,,,0.04,VWS V14.01,2014-01-01 23:04:00,
2014-01-01 17:05:00,60.4,53.6,29.97,ESE,116,0.0,0.0,78,0.00,,,0.04,VWS V14.01,2014-01-01 23:05:00,
2014-01-01 17:06:00,60.4,53.6,29.97,ESE,116,0.0,0.0,78,0.00,,,0.04,VWS V14.01,2014-01-01 23:06:00,
2014-01-01 17:07:00,60.4,53.6,29.97,NE,44,0.0,0.0,78,0.00,,,0.04,VWS V14.01,2014-01-01 23:07:00,
2014-01-01 17:08:00,60.4,53.6,29.97,ESE,105,0.0,0.0,78,0.00,,,0.04,VWS V14.01,2014-01-01 23:08:00,
2014-01-01 17:09:00,60.4,53.6,29.97,East,92,0.0,0.0,78,0.00,,,0.04,VWS V14.01,2014-01-01 23:09:00,
2014-01-01 17:10:00,60.3,53.4,29.97,East,92,0.0,0.0,78,0.00,,,0.04,VWS V14.01,2014-01-01 23:10:00,
2014-01-01 17:11:00,60.3,53.4,29.97,East,92,0.0,0.0,78,0.00,,,0.04,VWS V14.01,2014-01-01 23:11:00,
2014-01-01 17:12:00,60.3,53.4,29.97,East,92,0.0,0.0,78,0.00,,,0.04,VWS V14.01,2014-01-01 23:12:00,
2014-01-01 17:13:00,60.3,53.4,29.97,East,92,0.0,0.0,78,0.00,,,0.04,VWS V14.01,2014-01-01 23:13:00,
2014-01-01 17:14:00,60.1,53.2,29.97,East,92,0.0,0.0,78,0.00,,,0.04,VWS V14.01,2014-01-01 23:14:00,
2014-01-01 17:15:00,60.1,53.2,29.97,East,92,0.0,0.0,78,0.00,,,0.04,VWS V14.01,2014-01-01 23:15:00,
2014-01-01 17:16:00,60.1,53.2,29.97,East,92,0.0,0.0,78,0.00,,,0.04,VWS V14.01,2014-01-01 23:16:00,
2014-01-01 17:17:00,60.1,53.2,29.97,East,92,0.0,0.0,78,0.00,,,0.04,VWS V14.01,2014-01-01 23:17:00,
2014-01-01 17:18:00,60.1,53.2,29.97,East,92,0.0,0.0,78,0.00,,,0.04,VWS V14.01,2014-01-01 23:18:00,
2014-01-01 17:19:00,60.1,53.2,29.97,East,92,0.0,0.0,78,0.00,,,0.04,VWS V14.01,2014-01-01 23:19:00,
2014-01-01 17:20:00,60.1,53.6,29.97,East,92,0.0,0.0,79,0.00,,,0.04,VWS V14.01,2014-01-01 23:20:00,
2014-01-01 17:21:00,60.1,53.6,29.97,East,92,0.0,0.0,79,0.00,,,0.04,VWS V14.01,2014-01-01 23:21:00,
2014-01-01 17:22:00,59.9,53.4,29.97,East,92,0.0,0.0,79,0.00,,,0.04,VWS V14.01,2014-01-01 23:22:00,
2014-01-01 17:23:00,59.9,53.4,29.97,East,92,0.0,0.0,79,0.00,,,0.04,VWS V14.01,2014-01-01 23:23:00,
2014-01-01 17:24:00,59.9,53.4,29.97,East,92,0.0,0.0,79,0.00,,,0.04,VWS V14.01,2014-01-01 23:24:00,
2014-01-01 17:25:00,59.9,53.4,29.97,East,92,0.0,0.0,79,0.00,,,0.04,VWS V14.01,2014-01-01 23:25:00,
2014-01-01 17:26:00,59.9,53.4,29.97,East,92,0.0,0.0,79,0.00,,,0.04,VWS V14.01,2014-01-01 23:26:00,
2014-01-01 17:27:00,59.7,53.2,29.97,East,92,0.0,0.0,79,0.00,,,0.04,VWS V14.01,2014-01-01 23:27:00,
2014-01-01 17:28:00,59.7,53.2,29.97,East,92,0.0,0.0,79,0.00,,,0.04,VWS V14.01,2014-01-01 23:28:00,
2014-01-01 17:29:00,59.7,53.2,29.97,East,92,0.0,0.0,79,0.00,,,0.04,VWS V14.01,2014-01-01 23:29:00,
2014-01-01 17:30:00,59.7,53.2,29.97,East,92,0.0,0.0,79,0.00,,,0.04,VWS V14.01,2014-01-01 23:30:00,
2014-01-01 17:31:00,59.7,53.2,29.97,East,92,0.0,0.0,79,0.00,,,0.04,VWS V14.01,2014-01-01 23:31:00,
2014-01-01 17:32:00,59.7,53.2,29.97,East,92,0.0,0.0,79,0.00,,,0.04,VWS V14.01,2014-01-01 23:32:00,
2014-01-01 17:33:00,59.5,53.0,29.97,East,92,0.0,0.0,79,0.00,,,0.04,VWS V14.01,2014-01-01 23:33:00,
2014-01-01 17:34:00,59.5,53.0,29.97,East,92,0.0,0.0,79,0.00,,,0.04,VWS V14.01,2014-01-01 23:34:00,
2014-01-01 17:35:00,59.5,53.0,29.97,East,92,0.0,0.0,79,0.00,,,0.04,VWS V14.01,2014-01-01 23:35:00,
2014-01-01 17:36:00,59.5,53.0,29.97,East,92,0.0,0.0,79,0.00,,,0.04,VWS V14.01,2014-01-01 23:36:00,
2014-01-01 17:37:00,59.4,52.8,29.97,East,92,0.0,0.0,79,0.00,,,0.04,VWS V14.01,2014-01-01 23:37:00,
2014-01-01 17:38:00,59.4,52.8,29.97,East,92,0.0,0.0,79,0.00,,,0.04,VWS V14.01,2014-01-01 23:38:00,
2014-01-01 17:39:00,59.4,52.8,29.97,East,92,0.0,0.0,79,0.00,,,0.04,VWS V14.01,2014-01-01 23:39:00,
2014-01-01 17:40:00,59.2,52.3,29.97,East,92,0.0,0.0,78,0.00,,,0.04,VWS V14.01,2014-01-01 23:40:00,
2014-01-01 17:41:00,59.2,52.3,29.97,East,92,0.0,0.0,78,0.00,,,0.04,VWS V14.01,2014-01-01 23:41:00,
2014-01-01 17:42:00,59.2,52.3,29.97,East,92,0.0,0.0,78,0.00,,,0.04,VWS V14.01,2014-01-01 23:42:00,
2014-01-01 17:43:00,59.2,52.3,29.97,East,92,0.0,0.0,78,0.00,,,0.04,VWS V14.01,2014-01-01 23:43:00,
2014-01-01 17:44:00,59.2,52.3,29.97,East,92,0.0,0.0,78,0.00,,,0.04,VWS V14.01,2014-01-01 23:44:00,
2014-01-01 17:45:00,59.2,52.7,29.97,East,92,0.0,0.0,79,0.00,,,0.04,VWS V14.01,2014-01-01 23:45:00,
2014-01-01 17:46:00,59.2,52.7,29.97,East,92,0.0,0.0,79,0.00,,,0.04,VWS V14.01,2014-01-01 23:46:00,
2014-01-01 17:47:00,59.2,52.7,29.97,East,92,0.0,0.0,79,0.00,,,0.04,VWS V14.01,2014-01-01 23:47:00,
2014-01-01 17:48:00,59.2,52.7,29.97,East,92,0.0,0.0,79,0.00,,,0.04,VWS V14.01,2014-01-01 23:48:00,
2014-01-01 17:49:00,59.2,52.7,29.97,SE,131,0.0,0.0,79,0.00,,,0.04,VWS V14.01,2014-01-01 23:49:00,
2014-01-01 17:50:00,59.2,52.7,29.97,ESE,113,0.0,0.0,79,0.00,,,0.04,VWS V14.01,2014-01-01 23:50:00,
2014-01-01 17:51:00,59.2,52.7,29.97,ESE,113,0.0,0.0,79,0.00,,,0.04,VWS V14.01,2014-01-01 23:51:00,
2014-01-01 17:52:00,59.2,52.7,29.97,ESE,113,0.0,0.0,79,0.00,,,0.04,VWS V14.01,2014-01-01 23:52:00,
2014-01-01 17:53:00,59.0,52.5,29.97,ESE,113,0.0,0.0,79,0.00,,,0.04,VWS V14.01,2014-01-01 23:53:00,
2014-01-01 17:54:00,59.0,52.5,29.97,ESE,113,0.0,0.0,79,0.00,,,0.04,VWS V14.01,2014-01-01 23:54:00,
2014-01-01 17:55:00,59.0,52.5,29.97,ESE,113,0.0,0.0,79,0.00,,,0.04,VWS V14.01,2014-01-01 23:55:00,
2014-01-01 17:56:00,59.0,52.5,29.97,ESE,113,0.0,0.0,79,0.00,,,0.04,VWS V14.01,2014-01-01 23:56:00,
2014-01-01 17:57:00,59.0,52.5,29.97,ESE,113,0.0,0.0,79,0.00,,,0.04,VWS V14.01,2014-01-01 23:57:00,
2014-01-01 17:58:00,59.0,52.8,29.97,ESE,113,0.0,0.0,80,0.00,,,0.04,VWS V14.01,2014-01-01 23:58:00,
2014-01-01 17:59:00,59.0,52.8,29.97,ESE,113,0.0,0.0,80,0.00,,,0.04,VWS V14.01,2014-01-01 23:59:00,
2014-01-01 18:00:00,58.8,52.7,29.97,ESE,113,0.0,0.0,80,0.00,,,0.04,VWS V14.01,2014-01-02 00:00:00,
2014-01-01 18:01:00,58.8,52.7,29.97,ESE,113,0.0,0.0,80,0.00,,,0.04,VWS V14.01,2014-01-02 00:01:00,
2014-01-01 18:02:00,58.8,52.7,29.97,ESE,113,0.0,0.0,80,0.00,,,0.04,VWS V14.01,2014-01-02 00:02:00,
2014-01-01 18:03:00,58.8,52.7,29.97,ESE,113,0.0,0.0,80,0.00,,,0.04,VWS V14.01,2014-01-02 00:03:00,
2014-01-01 18:04:00,58.8,52.7,29.97,ESE,113,0.0,0.0,80,0.00,,,0.04,VWS V14.01,2014-01-02 00:04:00,
2014-01-01 18:05:00,58.6,52.5,29.97,ESE,113,0.0,0.0,80,0.00,,,0.04,VWS V14.01,2014-01-02 00:05:00,
2014-01-01 18:06:00,58.6,52.5,29.97,ESE,113,0.0,0.0,80,0.00,,,0.04,VWS V14.01,2014-01-02 00:06:00,
2014-01-01 18:07:00,58.6,52.5,29.97,ESE,113,0.0,0.0,80,0.00,,,0.04,VWS V14.01,2014-01-02 00:07:00,
2014-01-01 18:08:00,58.8,52.7,29.97,ESE,113,0.0,0.0,80,0.00,,,0.04,VWS V14.01,2014-01-02 00:08:00,
2014-01-01 18:09:00,58.6,52.5,29.97,ESE,113,0.0,0.0,80,0.00,,,0.04,VWS V14.01,2014-01-02 00:09:00,
2014-01-01 18:10:00,58.6,52.5,29.97,ESE,113,0.0,0.0,80,0.00,,,0.04,VWS V14.01,2014-01-02 00:10:00,
2014-01-01 18:11:00,58.6,52.5,29.97,ESE,113,0.0,0.0,80,0.00,,,0.04,VWS V14.01,2014-01-02 00:11:00,
2014-01-01 18:12:00,58.6,52.5,29.97,ESE,113,0.0,0.0,80,0.00,,,0.04,VWS V14.01,2014-01-02 00:12:00,
2014-01-01 18:13:00,58.5,52.3,29.97,ESE,113,0.0,0.0,80,0.00,,,0.04,VWS V14.01,2014-01-02 00:13:00,
2014-01-01 18:14:00,58.5,52.3,29.97,ESE,113,0.0,0.0,80,0.00,,,0.04,VWS V14.01,2014-01-02 00:14:00,
2014-01-01 18:15:00,58.5,52.3,29.97,ESE,113,0.0,0.0,80,0.00,,,0.04,VWS V14.01,2014-01-02 00:15:00,
2014-01-01 18:16:00,58.5,52.3,29.97,ESE,113,0.0,0.0,80,0.00,,,0.04,VWS V14.01,2014-01-02 00:16:00,
2014-01-01 18:17:00,58.5,52.3,29.97,ESE,113,0.0,0.0,80,0.00,,,0.04,VWS V14.01,2014-01-02 00:17:00,
2014-01-01 18:18:00,58.3,52.2,29.97,ESE,113,0.0,0.0,80,0.00,,,0.04,VWS V14.01,2014-01-02 00:18:00,
2014-01-01 18:19:00,58.3,52.2,29.97,ESE,113,0.0,0.0,80,0.00,,,0.04,VWS V14.01,2014-01-02 00:19:00,
2014-01-01 18:20:00,58.3,52.2,29.97,ESE,113,0.0,0.0,80,0.00,,,0.04,VWS V14.01,2014-01-02 00:20:00,
2014-01-01 18:21:00,58.3,52.2,29.97,ESE,113,0.0,0.0,80,0.00,,,0.04,VWS V14.01,2014-01-02 00:21:00,
2014-01-01 18:22:00,58.3,52.2,29.97,ESE,113,0.0,0.0,80,0.00,,,0.04,VWS V14.01,2014-01-02 00:22:00,
2014-01-01 18:23:00,58.3,52.2,29.97,ESE,113,0.0,0.0,80,0.00,,,0.04,VWS V14.01,2014-01-02 00:23:00,
2014-01-01 18:24:00,58.1,52.3,29.97,ESE,113,0.0,0.0,81,0.00,,,0.04,VWS V14.01,2014-01-02 00:24:00,
2014-01-01 18:25:00,58.3,52.5,29.97,ESE,113,0.0,0.0,81,0.00,,,0.04,VWS V14.01,2014-01-02 00:25:00,
2014-01-01 18:26:00,58.3,52.5,29.97,ESE,113,0.0,0.0,81,0.00,,,0.04,VWS V14.01,2014-01-02 00:26:00,
2014-01-01 18:27:00,58.3,52.5,29.97,ESE,113,0.0,0.0,81,0.00,,,0.04,VWS V14.01,2014-01-02 00:27:00,
2014-01-01 18:28:00,58.3,52.5,29.97,ESE,113,0.0,0.0,81,0.00,,,0.04,VWS V14.01,2014-01-02 00:28:00,
2014-01-01 18:29:00,58.1,52.3,29.97,ESE,113,0.0,0.0,81,0.00,,,0.04,VWS V14.01,2014-01-02 00:29:00,
2014-01-01 18:30:00,58.1,52.3,29.97,ESE,113,0.0,0.0,81,0.00,,,0.04,VWS V14.01,2014-01-02 00:30:00,
2014-01-01 18:31:00,58.1,52.3,29.97,ESE,113,0.0,0.0,81,0.00,,,0.04,VWS V14.01,2014-01-02 00:31:00,
2014-01-01 18:32:00,58.1,52.3,30.00,ESE,113,0.0,0.0,81,0.00,,,0.04,VWS V14.01,2014-01-02 00:32:00,
2014-01-01 18:33:00,58.1,52.3,30.00,ESE,113,0.0,0.0,81,0.00,,,0.04,VWS V14.01,2014-01-02 00:33:00,
2014-01-01 18:34:00,58.1,52.6,30.00,ESE,113,0.0,0.0,82,0.00,,,0.04,VWS V14.01,2014-01-02 00:34:00,
2014-01-01 18:35:00,58.1,52.6,30.00,ESE,113,0.0,0.0,82,0.00,,,0.04,VWS V14.01,2014-01-02 00:35:00,
2014-01-01 18:36:00,58.1,52.6,30.00,ESE,113,0.0,0.0,82,0.00,,,0.04,VWS V14.01,2014-01-02 00:36:00,
2014-01-01 18:37:00,58.1,52.6,30.00,ESE,113,0.0,0.0,82,0.00,,,0.04,VWS V14.01,2014-01-02 00:37:00,
2014-01-01 18:38:00,57.9,52.5,30.00,ESE,113,0.0,0.0,82,0.00,,,0.04,VWS V14.01,2014-01-02 00:38:00,
2014-01-01 18:39:00,57.9,52.5,30.00,ESE,113,0.0,0.0,82,0.00,,,0.04,VWS V14.01,2014-01-02 00:39:00,
2014-01-01 18:40:00,57.9,52.5,30.00,ESE,113,0.0,0.0,82,0.00,,,0.04,VWS V14.01,2014-01-02 00:40:00,
2014-01-01 18:41:00,57.9,52.5,30.00,ESE,113,0.0,0.0,82,0.00,,,0.04,VWS V14.01,2014-01-02 00:41:00,
2014-01-01 18:42:00,57.9,52.5,30.00,ESE,113,0.0,0.0,82,0.00,,,0.04,VWS V14.01,2014-01-02 00:42:00,
2014-01-01 18:43:00,57.9,52.8,30.00,ESE,113,0.0,0.0,83,0.00,,,0.04,VWS V14.01,2014-01-02 00:43:00,
2014-01-01 18:44:00,57.9,52.8,30.00,ESE,113,0.0,0.0,83,0.00,,,0.04,VWS V14.01,2014-01-02 00:44:00,
2014-01-01 18:45:00,57.7,52.6,30.00,ESE,113,0.0,0.0,83,0.00,,,0.04,VWS V14.01,2014-01-02 00:45:00,
2014-01-01 18:46:00,57.7,52.6,30.00,ESE,113,0.0,0.0,83,0.00,,,0.04,VWS V14.01,2014-01-02 00:46:00,
2014-01-01 18:47:00,57.7,52.6,30.00,ESE,113,0.0,0.0,83,0.00,,,0.04,VWS V14.01,2014-01-02 00:47:00,
2014-01-01 18:48:00,57.7,52.6,30.00,ESE,113,0.0,0.0,83,0.00,,,0.04,VWS V14.01,2014-01-02 00:48:00,
2014-01-01 18:49:00,57.7,52.9,30.00,ESE,113,0.0,0.0,84,0.00,,,0.04,VWS V14.01,2014-01-02 00:49:00,
2014-01-01 18:50:00,57.7,53.0,30.00,ESE,113,0.0,0.0,84,0.00,,,0.04,VWS V14.01,2014-01-02 00:50:00,
2014-01-01 18:51:00,57.7,52.9,30.00,ESE,113,0.0,0.0,84,0.00,,,0.04,VWS V14.01,2014-01-02 00:51:00,
2014-01-01 18:52:00,57.7,52.9,30.00,ESE,113,0.0,0.0,84,0.00,,,0.04,VWS V14.01,2014-01-02 00:52:00,
2014-01-01 18:53:00,57.7,52.9,30.00,ESE,113,0.0,0.0,84,0.00,,,0.04,VWS V14.01,2014-01-02 00:53:00,
2014-01-01 18:54:00,57.7,52.9,30.00,ESE,113,0.0,0.0,84,0.00,,,0.04,VWS V14.01,2014-01-02 00:54:00,
2014-01-01 18:55:00,57.7,53.3,30.00,ESE,113,0.0,0.0,85,0.00,,,0.04,VWS V14.01,2014-01-02 00:55:00,
2014-01-01 18:56:00,57.7,53.3,30.00,ESE,113,0.0,0.0,85,0.00,,,0.04,VWS V14.01,2014-01-02 00:56:00,
2014-01-01 18:57:00,57.7,53.3,30.00,ESE,113,0.0,0.0,85,0.00,,,0.04,VWS V14.01,2014-01-02 00:57:00,
2014-01-01 18:58:00,57.7,53.3,30.00,ESE,113,0.0,0.0,85,0.00,,,0.04,VWS V14.01,2014-01-02 00:58:00,
2014-01-01 18:59:00,57.7,53.3,30.00,ESE,113,0.0,0.0,85,0.00,,,0.04,VWS V14.01,2014-01-02 00:59:00,
2014-01-01 19:00:00,57.7,53.3,30.00,ESE,113,0.0,0.0,85,0.00,,,0.04,VWS V14.01,2014-01-02 01:00:00,
2014-01-01 19:01:00,57.7,53.3,30.00,ESE,113,0.0,0.0,85,0.00,,,0.04,VWS V14.01,2014-01-02 01:01:00,
2014-01-01 19:02:00,57.7,53.3,30.00,ESE,113,0.0,0.0,85,0.00,,,0.04,VWS V14.01,2014-01-02 01:02:00,
2014-01-01 19:03:00,57.7,53.3,29.97,ESE,113,0.0,0.0,85,0.00,,,0.04,VWS V14.01,2014-01-02 01:03:00,
2014-01-01 19:04:00,57.7,53.3,29.97,ESE,113,0.0,0.0,85,0.00,,,0.04,VWS V14.01,2014-01-02 01:04:00,
2014-01-01 19:05:00,57.7,53.3,29.97,ESE,113,0.0,0.0,85,0.00,,,0.04,VWS V14.01,2014-01-02 01:05:00,
2014-01-01 19:06:00,57.7,53.3,29.97,ESE,113,0.0,0.0,85,0.00,,,0.04,VWS V14.01,2014-01-02 01:06:00,
2014-01-01 19:07:00,57.7,53.3,29.97,ESE,113,0.0,0.0,85,0.00,,,0.04,VWS V14.01,2014-01-02 01:07:00,
2014-01-01 19:08:00,57.7,53.3,29.97,ESE,113,0.0,0.0,85,0.00,,,0.04,VWS V14.01,2014-01-02 01:08:00,
2014-01-01 19:09:00,57.7,53.3,29.97,ESE,113,0.0,0.0,85,0.00,,,0.04,VWS V14.01,2014-01-02 01:09:00,
2014-01-01 19:10:00,57.7,53.6,29.97,ESE,113,0.0,0.0,86,0.00,,,0.04,VWS V14.01,2014-01-02 01:10:00,
2014-01-01 19:11:00,57.7,53.6,29.97,ESE,113,0.0,0.0,86,0.00,,,0.04,VWS V14.01,2014-01-02 01:11:00,
2014-01-01 19:12:00,57.7,53.6,29.97,ESE,113,0.0,0.0,86,0.00,,,0.04,VWS V14.01,2014-01-02 01:12:00,
2014-01-01 19:13:00,57.7,53.6,29.97,ESE,113,0.0,0.0,86,0.00,,,0.04,VWS V14.01,2014-01-02 01:13:00,
2014-01-01 19:14:00,57.7,53.6,29.97,ESE,113,0.0,0.0,86,0.00,,,0.04,VWS V14.01,2014-01-02 01:14:00,
2014-01-01 19:15:00,57.7,53.6,29.97,ESE,113,0.0,0.0,86,0.00,,,0.04,VWS V14.01,2014-01-02 01:15:00,
2014-01-01 19:16:00,57.7,53.6,29.97,SE,128,3.6,3.6,86,0.00,,,0.04,VWS V14.01,2014-01-02 01:16:00,
2014-01-01 19:17:00,57.7,53.6,29.97,SE,128,0.0,3.6,86,0.00,,,0.04,VWS V14.01,2014-01-02 01:17:00,
2014-01-01 19:18:00,57.7,53.6,29.97,SE,128,0.0,0.0,86,0.00,,,0.04,VWS V14.01,2014-01-02 01:18:00,
2014-01-01 19:19:00,57.7,53.6,29.97,SE,128,0.0,0.0,86,0.00,,,0.04,VWS V14.01,2014-01-02 01:19:00,
2014-01-01 19:20:00,57.7,53.6,29.97,SE,128,0.0,0.0,86,0.00,,,0.04,VWS V14.01,2014-01-02 01:20:00,
2014-01-01 19:21:00,57.7,53.6,29.97,SE,128,0.0,0.0,86,0.00,,,0.04,VWS V14.01,2014-01-02 01:21:00,
2014-01-01 19:22:00,57.7,53.6,29.97,SE,128,0.0,0.0,86,0.00,,,0.04,VWS V14.01,2014-01-02 01:22:00,
2014-01-01 19:23:00,57.9,53.8,29.97,SE,128,0.0,0.0,86,0.00,,,0.04,VWS V14.01,2014-01-02 01:23:00,
2014-01-01 19:24:00,57.7,53.9,29.97,SE,144,0.0,0.0,87,0.00,,,0.04,VWS V14.01,2014-01-02 01:24:00,
2014-01-01 19:25:00,57.9,54.1,29.97,SE,144,0.0,0.0,87,0.00,,,0.04,VWS V14.01,2014-01-02 01:25:00,
2014-01-01 19:26:00,57.9,54.1,29.97,SE,144,0.0,0.0,87,0.00,,,0.04,VWS V14.01,2014-01-02 01:26:00,
2014-01-01 19:27:00,57.9,54.1,29.97,SE,144,0.0,0.0,87,0.00,,,0.04,VWS V14.01,2014-01-02 01:27:00,
2014-01-01 19:28:00,57.9,54.1,29.97,SE,144,0.0,0.0,87,0.00,,,0.04,VWS V14.01,2014-01-02 01:28:00,
2014-01-01 19:29:00,57.9,54.1,29.97,SE,144,0.0,0.0,87,0.00,,,0.04,VWS V14.01,2014-01-02 01:29:00,
2014-01-01 19:30:00,57.9,54.1,29.97,SSE,159,0.0,0.0,87,0.00,,,0.04,VWS V14.01,2014-01-02 01:30:00,
2014-01-01 19:31:00,57.9,54.1,29.97,SSE,158,0.0,0.0,87,0.00,,,0.04,VWS V14.01,2014-01-02 01:31:00,
2014-01-01 19:32:00,57.9,54.1,29.97,SSE,159,0.0,0.0,87,0.00,,,0.04,VWS V14.01,2014-01-02 01:32:00,
2014-01-01 19:33:00,57.9,54.1,29.97,SSE,159,0.0,0.0,87,0.00,,,0.04,VWS V14.01,2014-01-02 01:33:00,
2014-01-01 19:34:00,57.9,54.1,29.97,SSE,159,0.0,0.0,87,0.00,,,0.04,VWS V14.01,2014-01-02 01:34:00,
2014-01-01 19:35:00,57.9,54.1,29.97,SSE,159,0.0,0.0,87,0.00,,,0.04,VWS V14.01,2014-01-02 01:35:00,
2014-01-01 19:36:00,57.9,54.1,29.97,SSE,159,0.0,0.0,87,0.00,,,0.04,VWS V14.01,2014-01-02 01:36:00,
2014-01-01 19:37:00,57.9,54.1,29.97,SSE,159,0.0,0.0,87,0.00,,,0.04,VWS V14.01,2014-01-02 01:37:00,
2014-01-01 19:38:00,57.9,54.1,29.97,SSE,159,0.0,0.0,87,0.00,,,0.04,VWS V14.01,2014-01-02 01:38:00,
2014-01-01 19:39:00,57.9,54.1,29.97,SSE,159,0.0,0.0,87,0.00,,,0.04,VWS V14.01,2014-01-02 01:39:00,
2014-01-01 19:40:00,57.9,54.1,29.97,SSE,159,0.0,0.0,87,0.00,,,0.04,VWS V14.01,2014-01-02 01:40:00,
2014-01-01 19:41:00,57.9,54.1,29.97,SSE,159,0.0,0.0,87,0.00,,,0.04,VWS V14.01,2014-01-02 01:41:00,
2014-01-01 19:42:00,57.9,54.1,29.97,SSE,159,0.0,0.0,87,0.00,,,0.04,VWS V14.01,2014-01-02 01:42:00,
2014-01-01 19:43:00,57.9,54.1,29.97,SE,128,0.0,0.0,87,0.00,,,0.04,VWS V14.01,2014-01-02 01:43:00,
2014-01-01 19:44:00,57.9,54.1,29.97,SE,128,0.0,0.0,87,0.00,,,0.04,VWS V14.01,2014-01-02 01:44:00,
2014-01-01 19:45:00,57.9,54.1,29.97,SE,128,0.0,0.0,87,0.00,,,0.04,VWS V14.01,2014-01-02 01:45:00,
2014-01-01 19:46:00,57.9,54.1,29.97,SE,128,0.0,0.0,87,0.00,,,0.04,VWS V14.01,2014-01-02 01:46:00,
2014-01-01 19:47:00,57.7,53.9,29.97,SE,128,0.0,0.0,87,0.00,,,0.04,VWS V14.01,2014-01-02 01:47:00,
2014-01-01 19:48:00,57.7,54.2,29.97,SE,128,0.0,0.0,88,0.00,,,0.04,VWS V14.01,2014-01-02 01:48:00,
2014-01-01 19:49:00,57.7,54.2,29.97,SE,128,0.0,0.0,88,0.00,,,0.04,VWS V14.01,2014-01-02 01:49:00,
2014-01-01 19:50:00,57.7,54.2,29.97,ENE,74,0.0,0.0,88,0.00,,,0.04,VWS V14.01,2014-01-02 01:50:00,
2014-01-01 19:51:00,57.7,54.2,29.97,ENE,74,0.0,0.0,88,0.00,,,0.04,VWS V14.01,2014-01-02 01:51:00,
2014-01-01 19:52:00,57.7,54.2,29.97,ENE,74,0.0,0.0,88,0.00,,,0.04,VWS V14.01,2014-01-02 01:52:00,
2014-01-01 19:53:00,57.7,54.2,29.97,ENE,74,0.0,0.0,88,0.00,,,0.04,VWS V14.01,2014-01-02 01:53:00,
2014-01-01 19:54:00,57.7,54.2,29.97,ENE,74,0.0,0.0,88,0.00,,,0.04,VWS V14.01,2014-01-02 01:54:00,
2014-01-01 19:55:00,57.7,54.2,29.97,ENE,74,0.0,0.0,88,0.00,,,0.04,VWS V14.01,2014-01-02 01:55:00,
2014-01-01 19:56:00,57.7,54.2,29.97,ENE,74,0.0,0.0,88,0.00,,,0.04,VWS V14.01,2014-01-02 01:56:00,
2014-01-01 19:57:00,57.7,54.2,29.97,ENE,74,0.0,0.0,88,0.00,,,0.04,VWS V14.01,2014-01-02 01:57:00,
2014-01-01 19:58:00,57.7,54.2,29.97,ENE,74,0.0,0.0,88,0.00,,,0.04,VWS V14.01,2014-01-02 01:58:00,
2014-01-01 19:59:00,57.7,54.2,29.97,ENE,74,0.0,0.0,88,0.00,,,0.04,VWS V14.01,2014-01-02 01:59:00,
2014-01-01 20:00:00,57.7,54.2,29.97,ENE,74,0.0,0.0,88,0.00,,,0.04,VWS V14.01,2014-01-02 02:00:00,
2014-01-01 20:01:00,57.7,54.2,29.97,ENE,74,0.0,0.0,88,0.00,,,0.04,VWS V14.01,2014-01-02 02:01:00,
2014-01-01 20:02:00,57.7,54.2,29.97,ENE,74,0.0,0.0,88,0.00,,,0.04,VWS V14.01,2014-01-02 02:02:00,
2014-01-01 20:03:00,57.7,54.2,29.97,ENE,74,0.0,0.0,88,0.00,,,0.04,VWS V14.01,2014-01-02 02:03:00,
2014-01-01 20:04:00,57.7,54.2,29.97,ENE,74,0.0,0.0,88,0.00,,,0.04,VWS V14.01,2014-01-02 02:04:00,
2014-01-01 20:05:00,57.7,54.5,29.97,ENE,74,0.0,0.0,89,0.00,,,0.04,VWS V14.01,2014-01-02 02:05:00,
2014-01-01 20:06:00,57.7,54.5,29.97,ENE,74,0.0,0.0,89,0.00,,,0.04,VWS V14.01,2014-01-02 02:06:00,
2014-01-01 20:07:00,57.6,54.3,29.97,ENE,74,0.0,0.0,89,0.00,,,0.04,VWS V14.01,2014-01-02 02:07:00,
2014-01-01 20:08:00,57.6,54.3,29.97,ENE,74,0.0,0.0,89,0.00,,,0.04,VWS V14.01,2014-01-02 02:08:00,
2014-01-01 20:09:00,57.6,54.3,29.97,SSE,153,0.0,0.0,89,0.00,,,0.04,VWS V14.01,2014-01-02 02:09:00,
2014-01-01 20:10:00,57.6,54.3,29.97,SSE,153,0.0,0.0,89,0.00,,,0.04,VWS V14.01,2014-01-02 02:10:00,
2014-01-01 20:11:00,57.6,54.3,29.97,SE,143,0.0,0.0,89,0.00,,,0.04,VWS V14.01,2014-01-02 02:11:00,
2014-01-01 20:12:00,57.6,54.3,29.97,SE,143,0.0,0.0,89,0.00,,,0.04,VWS V14.01,2014-01-02 02:12:00,
2014-01-01 20:13:00,57.6,54.3,29.97,SE,143,0.0,0.0,89,0.00,,,0.04,VWS V14.01,2014-01-02 02:13:00,
2014-01-01 20:14:00,57.6,54.3,29.97,ENE,59,0.0,0.0,89,0.00,,,0.04,VWS V14.01,2014-01-02 02:14:00,
2014-01-01 20:15:00,57.7,54.8,29.97,ENE,59,0.0,0.0,90,0.00,,,0.04,VWS V14.01,2014-01-02 02:15:00,
2014-01-01 20:16:00,57.7,54.8,29.97,ENE,59,0.0,0.0,90,0.00,,,0.04,VWS V14.01,2014-01-02 02:16:00,
2014-01-01 20:17:00,57.7,54.5,29.97,ENE,59,0.0,0.0,89,0.00,,,0.04,VWS V14.01,2014-01-02 02:17:00,
2014-01-01 20:18:00,57.7,54.5,29.97,ENE,59,0.0,0.0,89,0.00,,,0.04,VWS V14.01,2014-01-02 02:18:00,
2014-01-01 20:19:00,57.7,54.5,29.97,ENE,59,0.0,0.0,89,0.00,,,0.04,VWS V14.01,2014-01-02 02:19:00,
2014-01-01 20:20:00,57.6,54.3,29.97,ENE,59,0.0,0.0,89,0.00,,,0.04,VWS V14.01,2014-01-02 02:20:00,
2014-01-01 20:21:00,57.6,54.3,29.97,ENE,59,0.0,0.0,89,0.00,,,0.04,VWS V14.01,2014-01-02 02:21:00,
2014-01-01 20:22:00,57.6,54.3,29.97,SE,128,0.0,0.0,89,0.00,,,0.04,VWS V14.01,2014-01-02 02:22:00,
2014-01-01 20:23:00,57.6,54.3,29.97,ESE,102,0.0,0.0,89,0.00,,,0.04,VWS V14.01,2014-01-02 02:23:00,
2014-01-01 20:24:00,57.6,54.3,29.97,East,92,0.0,0.0,89,0.00,,,0.04,VWS V14.01,2014-01-02 02:24:00,
2014-01-01 20:25:00,57.6,54.3,29.97,East,92,0.0,0.0,89,0.00,,,0.04,VWS V14.01,2014-01-02 02:25:00,
2014-01-01 20:26:00,57.6,54.3,29.97,East,92,0.0,0.0,89,0.00,,,0.04,VWS V14.01,2014-01-02 02:26:00,
2014-01-01 20:27:00,57.6,54.7,29.97,East,92,0.0,0.0,90,0.00,,,0.04,VWS V14.01,2014-01-02 02:27:00,
2014-01-01 20:28:00,57.6,54.7,29.97,ESE,120,0.0,0.0,90,0.00,,,0.04,VWS V14.01,2014-01-02 02:28:00,
2014-01-01 20:29:00,57.6,54.7,29.97,ESE,120,0.0,0.0,90,0.00,,,0.04,VWS V14.01,2014-01-02 02:29:00,
2014-01-01 20:30:00,57.6,54.7,29.97,ESE,117,0.0,0.0,90,0.00,,,0.04,VWS V14.01,2014-01-02 02:30:00,
2014-01-01 20:31:00,57.4,54.5,29.97,ESE,117,0.0,0.0,90,0.00,,,0.04,VWS V14.01,2014-01-02 02:31:00,
2014-01-01 20:32:00,57.4,54.5,29.97,ESE,117,0.0,0.0,90,0.00,,,0.04,VWS V14.01,2014-01-02 02:32:00,
2014-01-01 20:33:00,57.4,54.5,29.97,ESE,117,0.0,0.0,90,0.00,,,0.04,VWS V14.01,2014-01-02 02:33:00,
2014-01-01 20:34:00,57.4,54.5,29.97,ESE,117,0.0,0.0,90,0.00,,,0.04,VWS V14.01,2014-01-02 02:34:00,
2014-01-01 20:35:00,57.4,54.5,29.97,ESE,117,0.0,0.0,90,0.00,,,0.04,VWS V14.01,2014-01-02 02:35:00,
2014-01-01 20:36:00,57.4,54.5,29.97,ESE,117,0.0,0.0,90,0.00,,,0.04,VWS V14.01,2014-01-02 02:36:00,
2014-01-01 20:37:00,57.4,54.5,29.97,SE,129,0.0,0.0,90,0.00,,,0.04,VWS V14.01,2014-01-02 02:37:00,
2014-01-01 20:38:00,57.4,54.5,29.97,SE,129,0.0,0.0,90,0.00,,,0.04,VWS V14.01,2014-01-02 02:38:00,
2014-01-01 20:39:00,57.4,54.5,29.97,SE,129,0.0,0.0,90,0.00,,,0.04,VWS V14.01,2014-01-02 02:39:00,
2014-01-01 20:40:00,57.4,54.5,29.97,SE,129,0.0,0.0,90,0.00,,,0.04,VWS V14.01,2014-01-02 02:40:00,
2014-01-01 20:41:00,57.4,54.5,29.97,SE,129,0.0,0.0,90,0.00,,,0.04,VWS V14.01,2014-01-02 02:41:00,
2014-01-01 20:42:00,57.4,54.5,29.97,SE,129,0.0,0.0,90,0.00,,,0.04,VWS V14.01,2014-01-02 02:42:00,
2014-01-01 20:43:00,57.4,54.5,29.97,SE,129,0.0,0.0,90,0.00,,,0.04,VWS V14.01,2014-01-02 02:43:00,
2014-01-01 20:44:00,57.4,54.5,29.97,SE,129,0.0,0.0,90,0.00,,,0.04,VWS V14.01,2014-01-02 02:44:00,
2014-01-01 20:45:00,57.4,54.5,29.97,SE,129,0.0,0.0,90,0.00,,,0.04,VWS V14.01,2014-01-02 02:45:00,
2014-01-01 20:46:00,57.4,54.8,29.97,SE,129,0.0,0.0,91,0.00,,,0.04,VWS V14.01,2014-01-02 02:46:00,
2014-01-01 20:47:00,57.4,54.8,29.97,SE,129,0.0,0.0,91,0.00,,,0.04,VWS V14.01,2014-01-02 02:47:00,
2014-01-01 20:48:00,57.2,54.6,30.00,SE,129,0.0,0.0,91,0.00,,,0.04,VWS V14.01,2014-01-02 02:48:00,
2014-01-01 20:49:00,57.2,54.6,30.00,SE,129,0.0,0.0,91,0.00,,,0.04,VWS V14.01,2014-01-02 02:49:00,
2014-01-01 20:50:00,57.2,54.6,30.00,SE,129,0.0,0.0,91,0.00,,,0.04,VWS V14.01,2014-01-02 02:50:00,
2014-01-01 20:51:00,57.2,54.6,30.00,SE,129,0.0,0.0,91,0.00,,,0.04,VWS V14.01,2014-01-02 02:51:00,
2014-01-01 20:52:00,57.2,54.6,30.00,NE,56,0.0,0.0,91,0.00,,,0.04,VWS V14.01,2014-01-02 02:52:00,
2014-01-01 20:53:00,57.2,54.6,30.00,NE,56,0.0,0.0,91,0.00,,,0.04,VWS V14.01,2014-01-02 02:53:00,
2014-01-01 20:54:00,57.2,54.6,30.00,NE,56,0.0,0.0,91,0.00,,,0.04,VWS V14.01,2014-01-02 02:54:00,
2014-01-01 20:55:00,57.2,54.6,30.00,NE,56,0.0,0.0,91,0.00,,,0.04,VWS V14.01,2014-01-02 02:55:00,
2014-01-01 20:56:00,57.2,54.6,30.00,NE,56,0.0,0.0,91,0.00,,,0.04,VWS V14.01,2014-01-02 02:56:00,
2014-01-01 20:57:00,57.2,54.6,30.00,NE,56,0.0,0.0,91,0.00,,,0.04,VWS V14.01,2014-01-02 02:57:00,
2014-01-01 20:58:00,57.2,54.6,30.00,NE,56,0.0,0.0,91,0.00,,,0.04,VWS V14.01,2014-01-02 02:58:00,
2014-01-01 20:59:00,57.2,54.6,30.00,NE,56,0.0,0.0,91,0.00,,,0.04,VWS V14.01,2014-01-02 02:59:00,
2014-01-01 21:00:00,57.2,54.6,30.00,NE,56,0.0,0.0,91,0.00,,,0.04,VWS V14.01,2014-01-02 03:00:00,
2014-01-01 21:01:00,57.2,54.6,30.00,NE,56,0.0,0.0,91,0.00,,,0.04,VWS V14.01,2014-01-02 03:01:00,
2014-01-01 21:02:00,57.2,54.6,29.97,NE,56,0.0,0.0,91,0.00,,,0.04,VWS V14.01,2014-01-02 03:02:00,
2014-01-01 21:03:00,57.2,54.6,29.97,NE,56,0.0,0.0,91,0.00,,,0.04,VWS V14.01,2014-01-02 03:03:00,
2014-01-01 21:04:00,57.2,54.6,29.97,NE,56,0.0,0.0,91,0.00,,,0.04,VWS V14.01,2014-01-02 03:04:00,
2014-01-01 21:05:00,57.2,54.6,29.97,NE,56,0.0,0.0,91,0.00,,,0.04,VWS V14.01,2014-01-02 03:05:00,
2014-01-01 21:06:00,57.0,54.4,29.97,NE,56,0.0,0.0,91,0.00,,,0.04,VWS V14.01,2014-01-02 03:06:00,
2014-01-01 21:07:00,57.0,54.4,29.97,SE,128,0.0,0.0,91,0.00,,,0.04,VWS V14.01,2014-01-02 03:07:00,
2014-01-01 21:08:00,57.0,54.7,29.97,SE,129,0.0,0.0,92,0.00,,,0.04,VWS V14.01,2014-01-02 03:08:00,
2014-01-01 21:09:00,57.0,54.7,29.97,SSE,161,0.0,0.0,92,0.00,,,0.04,VWS V14.01,2014-01-02 03:09:00,
2014-01-01 21:10:00,57.0,54.7,29.97,ESE,120,0.0,0.0,92,0.00,,,0.04,VWS V14.01,2014-01-02 03:10:00,
2014-01-01 21:11:00,57.0,54.7,29.97,SE,142,0.0,0.0,92,0.00,,,0.04,VWS V14.01,2014-01-02 03:11:00,
2014-01-01 21:12:00,57.0,54.7,29.97,SE,143,0.0,0.0,92,0.00,,,0.04,VWS V14.01,2014-01-02 03:12:00,
2014-01-01 21:13:00,57.0,54.7,29.97,SE,127,0.0,0.0,92,0.00,,,0.04,VWS V14.01,2014-01-02 03:13:00,
2014-01-01 21:14:00,56.8,54.5,29.97,SE,127,0.0,0.0,92,0.00,,,0.04,VWS V14.01,2014-01-02 03:14:00,
2014-01-01 21:15:00,56.8,54.5,29.97,SSE,154,0.0,0.0,92,0.00,,,0.04,VWS V14.01,2014-01-02 03:15:00,
2014-01-01 21:16:00,56.8,54.5,29.97,SSE,154,0.0,0.0,92,0.00,,,0.04,VWS V14.01,2014-01-02 03:16:00,
2014-01-01 21:17:00,56.8,54.5,29.97,SSE,154,0.0,0.0,92,0.00,,,0.04,VWS V14.01,2014-01-02 03:17:00,
2014-01-01 21:18:00,56.8,54.5,30.00,SSE,154,0.0,0.0,92,0.00,,,0.04,VWS V14.01,2014-01-02 03:18:00,
2014-01-01 21:19:00,56.8,54.5,30.00,SE,142,0.0,0.0,92,0.00,,,0.04,VWS V14.01,2014-01-02 03:19:00,
2014-01-01 21:20:00,56.8,54.5,30.00,SSE,159,0.0,0.0,92,0.00,,,0.04,VWS V14.01,2014-01-02 03:20:00,
2014-01-01 21:21:00,56.8,54.5,30.00,SSE,159,0.0,0.0,92,0.00,,,0.04,VWS V14.01,2014-01-02 03:21:00,
2014-01-01 21:22:00,56.8,54.5,30.00,SSE,159,0.0,0.0,92,0.00,,,0.04,VWS V14.01,2014-01-02 03:22:00,
2014-01-01 21:23:00,56.8,54.5,30.00,South,191,0.0,0.0,92,0.00,,,0.04,VWS V14.01,2014-01-02 03:23:00,
2014-01-01 21:24:00,56.8,54.5,30.00,South,191,0.0,0.0,92,0.00,,,0.04,VWS V14.01,2014-01-02 03:24:00,
2014-01-01 21:25:00,56.8,54.5,30.00,East,101,0.0,0.0,92,0.00,,,0.04,VWS V14.01,2014-01-02 03:25:00,
2014-01-01 21:26:00,56.8,54.5,30.00,East,101,0.0,0.0,92,0.00,,,0.04,VWS V14.01,2014-01-02 03:26:00,
2014-01-01 21:27:00,56.8,54.5,30.00,ESE,103,0.0,0.0,92,0.00,,,0.04,VWS V14.01,2014-01-02 03:27:00,
2014-01-01 21:28:00,56.8,54.5,30.00,ENE,70,4.0,4.0,92,0.00,,,0.04,VWS V14.01,2014-01-02 03:28:00,
2014-01-01 21:29:00,56.8,54.5,30.00,SE,130,0.0,4.0,92,0.00,,,0.04,VWS V14.01,2014-01-02 03:29:00,
2014-01-01 21:30:00,56.8,54.5,30.00,NE,55,3.1,3.1,92,0.00,,,0.04,VWS V14.01,2014-01-02 03:30:00,
2014-01-01 21:31:00,56.8,54.5,30.00,NE,56,0.0,3.1,92,0.00,,,0.04,VWS V14.01,2014-01-02 03:31:00,
2014-01-01 21:32:00,56.7,54.4,30.00,East,94,2.7,5.8,92,0.00,,,0.04,VWS V14.01,2014-01-02 03:32:00,
2014-01-01 21:33:00,56.7,54.4,29.97,East,94,0.0,2.7,92,0.00,,,0.04,VWS V14.01,2014-01-02 03:33:00,
2014-01-01 21:34:00,56.7,54.4,29.97,SE,125,0.0,3.1,92,0.00,,,0.04,VWS V14.01,2014-01-02 03:34:00,
2014-01-01 21:35:00,56.7,54.4,29.97,ENE,76,2.7,6.3,92,0.00,,,0.04,VWS V14.01,2014-01-02 03:35:00,
2014-01-01 21:36:00,56.7,54.4,29.97,East,87,0.0,6.3,92,0.00,,,0.04,VWS V14.01,2014-01-02 03:36:00,
2014-01-01 21:37:00,56.7,54.4,29.97,East,87,0.0,0.0,92,0.00,,,0.04,VWS V14.01,2014-01-02 03:37:00,
2014-01-01 21:38:00,56.7,54.4,29.97,SE,131,0.0,3.6,92,0.00,,,0.04,VWS V14.01,2014-01-02 03:38:00,
2014-01-01 21:39:00,56.7,54.4,29.97,ENE,63,0.0,0.0,92,0.00,,,0.04,VWS V14.01,2014-01-02 03:39:00,
2014-01-01 21:40:00,56.7,54.4,29.97,North,3,0.0,0.0,92,0.00,,,0.04,VWS V14.01,2014-01-02 03:40:00,
2014-01-01 21:41:00,56.7,54.4,29.97,North,3,0.0,0.0,92,0.00,,,0.04,VWS V14.01,2014-01-02 03:41:00,
2014-01-01 21:42:00,56.7,54.4,29.97,North,3,0.0,0.0,92,0.00,,,0.04,VWS V14.01,2014-01-02 03:42:00,
2014-01-01 21:43:00,56.7,54.4,29.97,North,3,0.0,0.0,92,0.00,,,0.04,VWS V14.01,2014-01-02 03:43:00,
2014-01-01 21:44:00,56.7,54.4,29.97,North,3,0.0,0.0,92,0.00,,,0.04,VWS V14.01,2014-01-02 03:44:00,
2014-01-01 21:45:00,56.7,54.4,29.97,North,3,0.0,0.0,92,0.00,,,0.04,VWS V14.01,2014-01-02 03:45:00,
2014-01-01 21:46:00,56.7,54.4,29.97,North,3,0.0,0.0,92,0.00,,,0.04,VWS V14.01,2014-01-02 03:46:00,
2014-01-01 21:47:00,56.5,54.2,29.97,East,80,0.0,0.0,92,0.00,,,0.04,VWS V14.01,2014-01-02 03:47:00,
2014-01-01 21:48:00,56.5,54.2,29.97,East,79,0.0,0.0,92,0.00,,,0.04,VWS V14.01,2014-01-02 03:48:00,
2014-01-01 21:49:00,56.5,54.2,29.97,East,79,0.0,0.0,92,0.00,,,0.04,VWS V14.01,2014-01-02 03:49:00,
2014-01-01 21:50:00,56.5,54.2,29.97,East,79,0.0,0.0,92,0.00,,,0.04,VWS V14.01,2014-01-02 03:50:00,
2014-01-01 21:51:00,56.5,54.2,29.97,East,79,0.0,0.0,92,0.00,,,0.04,VWS V14.01,2014-01-02 03:51:00,
2014-01-01 21:52:00,56.5,54.2,29.97,SE,126,0.0,0.0,92,0.00,,,0.04,VWS V14.01,2014-01-02 03:52:00,
2014-01-01 21:53:00,56.5,54.2,29.97,SE,126,0.0,0.0,92,0.00,,,0.04,VWS V14.01,2014-01-02 03:53:00,
2014-01-01 21:54:00,56.5,54.2,29.97,SE,126,0.0,0.0,92,0.00,,,0.04,VWS V14.01,2014-01-02 03:54:00,
2014-01-01 21:55:00,56.5,54.2,29.97,SE,126,0.0,0.0,92,0.00,,,0.04,VWS V14.01,2014-01-02 03:55:00,
2014-01-01 21:56:00,56.5,54.2,29.97,SE,126,0.0,0.0,92,0.00,,,0.04,VWS V14.01,2014-01-02 03:56:00,
2014-01-01 21:57:00,56.5,54.2,29.97,ESE,121,0.0,0.0,92,0.00,,,0.04,VWS V14.01,2014-01-02 03:57:00,
2014-01-01 21:58:00,56.3,54.0,29.97,ESE,122,0.0,0.0,92,0.00,,,0.04,VWS V14.01,2014-01-02 03:58:00,
2014-01-01 21:59:00,56.3,54.0,29.97,ESE,122,0.0,0.0,92,0.00,,,0.04,VWS V14.01,2014-01-02 03:59:00,
2014-01-01 22:00:00,56.3,54.0,29.97,ESE,118,0.0,0.0,92,0.00,,,0.04,VWS V14.01,2014-01-02 04:00:00,
2014-01-01 22:01:00,56.3,54.0,29.97,East,101,0.0,0.0,92,0.00,,,0.04,VWS V14.01,2014-01-02 04:01:00,
2014-01-01 22:02:00,56.3,54.0,29.97,East,101,0.0,0.0,92,0.00,,,0.04,VWS V14.01,2014-01-02 04:02:00,
2014-01-01 22:03:00,56.3,54.0,29.97,ESE,123,0.0,3.6,92,0.00,,,0.04,VWS V14.01,2014-01-02 04:03:00,
2014-01-01 22:04:00,56.3,54.0,29.97,East,95,0.0,0.0,92,0.00,,,0.04,VWS V14.01,2014-01-02 04:04:00,
2014-01-01 22:05:00,56.3,54.0,29.97,NNE,26,0.0,0.0,92,0.00,,,0.04,VWS V14.01,2014-01-02 04:05:00,
2014-01-01 22:06:00,56.3,54.0,29.97,ESE,114,4.0,4.9,92,0.00,,,0.04,VWS V14.01,2014-01-02 04:06:00,
2014-01-01 22:07:00,56.3,54.0,29.97,ESE,102,3.1,4.0,92,0.00,,,0.04,VWS V14.01,2014-01-02 04:07:00,
2014-01-01 22:08:00,56.3,54.0,29.97,ESE,106,0.0,3.1,92,0.00,,,0.04,VWS V14.01,2014-01-02 04:08:00,
2014-01-01 22:09:00,56.3,54.0,29.97,ESE,112,0.0,4.5,92,0.00,,,0.04,VWS V14.01,2014-01-02 04:09:00,
2014-01-01 22:10:00,56.3,54.0,29.97,ESE,112,0.0,0.0,92,0.00,,,0.04,VWS V14.01,2014-01-02 04:10:00,
2014-01-01 22:11:00,56.3,54.0,29.97,ESE,112,0.0,0.0,92,0.00,,,0.04,VWS V14.01,2014-01-02 04:11:00,
2014-01-01 22:12:00,56.3,54.0,29.97,ESE,112,0.0,0.0,92,0.00,,,0.04,VWS V14.01,2014-01-02 04:12:00,
2014-01-01 22:13:00,56.3,54.0,29.97,ESE,112,0.0,0.0,92,0.00,,,0.04,VWS V14.01,2014-01-02 04:13:00,
2014-01-01 22:14:00,56.3,54.0,29.97,SSE,166,0.0,0.0,92,0.00,,,0.04,VWS V14.01,2014-01-02 04:14:00,
2014-01-01 22:15:00,56.3,54.0,29.97,East,89,0.0,0.0,92,0.00,,,0.04,VWS V14.01,2014-01-02 04:15:00,
2014-01-01 22:16:00,56.3,54.0,29.97,East,89,0.0,0.0,92,0.00,,,0.04,VWS V14.01,2014-01-02 04:16:00,
2014-01-01 22:17:00,56.3,54.0,29.97,East,89,0.0,0.0,92,0.00,,,0.04,VWS V14.01,2014-01-02 04:17:00,
2014-01-01 22:18:00,56.1,53.8,29.94,East,86,3.6,3.6,92,0.00,,,0.04,VWS V14.01,2014-01-02 04:18:00,
2014-01-01 22:19:00,56.1,53.8,29.94,East,97,3.1,4.9,92,0.00,,,0.04,VWS V14.01,2014-01-02 04:19:00,
2014-01-01 22:20:00,56.1,53.8,29.94,SE,127,3.6,3.6,92,0.00,,,0.04,VWS V14.01,2014-01-02 04:20:00,
2014-01-01 22:21:00,56.1,54.1,29.94,SE,127,0.0,3.6,93,0.00,,,0.04,VWS V14.01,2014-01-02 04:21:00,
2014-01-01 22:22:00,56.1,54.1,29.94,East,100,3.1,3.6,93,0.00,,,0.04,VWS V14.01,2014-01-02 04:22:00,
2014-01-01 22:23:00,56.1,54.1,29.94,ESE,123,0.0,4.0,93,0.00,,,0.04,VWS V14.01,2014-01-02 04:23:00,
2014-01-01 22:24:00,56.1,54.1,29.94,East,85,0.0,2.7,93,0.00,,,0.04,VWS V14.01,2014-01-02 04:24:00,
2014-01-01 22:25:00,56.1,54.1,29.94,ESE,111,0.0,0.0,93,0.00,,,0.04,VWS V14.01,2014-01-02 04:25:00,
2014-01-01 22:26:00,56.1,54.1,29.94,SSE,149,0.0,0.0,93,0.00,,,0.04,VWS V14.01,2014-01-02 04:26:00,
2014-01-01 22:27:00,56.1,54.1,29.94,SSE,149,0.0,0.0,93,0.00,,,0.04,VWS V14.01,2014-01-02 04:27:00,
2014-01-01 22:28:00,55.9,54.0,29.94,SSE,147,0.0,0.0,93,0.00,,,0.04,VWS V14.01,2014-01-02 04:28:00,
2014-01-01 22:29:00,55.9,54.0,29.94,SSE,147,0.0,0.0,93,0.00,,,0.04,VWS V14.01,2014-01-02 04:29:00,
2014-01-01 22:30:00,55.9,54.0,29.94,East,96,0.0,0.0,93,0.00,,,0.04,VWS V14.01,2014-01-02 04:30:00,
2014-01-01 22:31:00,55.9,54.0,29.94,East,90,0.0,0.0,93,0.00,,,0.04,VWS V14.01,2014-01-02 04:31:00,
2014-01-01 22:32:00,55.9,54.0,29.94,SSE,159,4.0,4.9,93,0.00,,,0.04,VWS V14.01,2014-01-02 04:32:00,
2014-01-01 22:33:00,55.9,54.0,29.94,ESE,109,5.4,5.8,93,0.00,,,0.04,VWS V14.01,2014-01-02 04:33:00,
2014-01-01 22:34:00,55.9,54.0,29.94,ESE,119,2.7,5.4,93,0.00,,,0.04,VWS V14.01,2014-01-02 04:34:00,
2014-01-01 22:35:00,55.9,54.0,29.94,SE,137,3.1,3.1,93,0.00,,,0.04,VWS V14.01,2014-01-02 04:35:00,
2014-01-01 22:36:00,55.9,54.2,29.94,East,89,0.0,3.1,94,0.00,,,0.04,VWS V14.01,2014-01-02 04:36:00,
2014-01-01 22:37:00,55.9,54.2,29.94,East,81,2.2,5.8,94,0.00,,,0.04,VWS V14.01,2014-01-02 04:37:00,
2014-01-01 22:38:00,55.9,54.2,29.94,SE,127,0.0,4.0,94,0.00,,,0.04,VWS V14.01,2014-01-02 04:38:00,
2014-01-01 22:39:00,55.9,54.2,29.94,ESE,110,5.4,6.3,94,0.00,,,0.04,VWS V14.01,2014-01-02 04:39:00,
2014-01-01 22:40:00,55.9,54.2,29.94,ESE,110,3.1,5.4,94,0.00,,,0.04,VWS V14.01,2014-01-02 04:40:00,
2014-01-01 22:41:00,55.9,54.2,29.94,SSE,150,3.6,5.4,94,0.00,,,0.04,VWS V14.01,2014-01-02 04:41:00,
2014-01-01 22:42:00,55.9,54.2,29.94,ESE,107,0.0,3.6,94,0.00,,,0.04,VWS V14.01,2014-01-02 04:42:00,
2014-01-01 22:43:00,55.9,54.2,29.94,ESE,107,0.0,0.0,94,0.00,,,0.04,VWS V14.01,2014-01-02 04:43:00,
2014-01-01 22:44:00,55.9,54.2,29.94,SSE,148,4.0,8.1,94,0.00,,,0.04,VWS V14.01,2014-01-02 04:44:00,
2014-01-01 22:45:00,55.9,54.5,29.94,ENE,58,3.1,4.0,95,0.00,,,0.04,VWS V14.01,2014-01-02 04:45:00,
2014-01-01 22:46:00,55.8,54.3,29.94,ENE,66,3.1,7.2,95,0.00,,,0.04,VWS V14.01,2014-01-02 04:46:00,
2014-01-01 22:47:00,55.8,54.3,29.91,ENE,66,0.0,3.1,95,0.00,,,0.04,VWS V14.01,2014-01-02 04:47:00,
2014-01-01 22:48:00,55.8,54.3,29.91,SE,133,3.6,5.4,95,0.00,,,0.04,VWS V14.01,2014-01-02 04:48:00,
2014-01-01 22:49:00,55.8,54.3,29.91,SE,141,0.0,5.4,95,0.00,,,0.04,VWS V14.01,2014-01-02 04:49:00,
2014-01-01 22:50:00,55.8,54.3,29.91,SE,141,0.0,0.0,95,0.00,,,0.04,VWS V14.01,2014-01-02 04:50:00,
2014-01-01 22:51:00,55.8,54.6,29.91,SE,125,4.0,4.0,96,0.00,,,0.04,VWS V14.01,2014-01-02 04:51:00,
2014-01-01 22:52:00,55.8,54.6,29.91,South,180,4.0,4.9,96,0.00,,,0.04,VWS V14.01,2014-01-02 04:52:00,
2014-01-01 22:53:00,55.8,54.6,29.91,SSE,153,4.0,4.0,96,0.00,,,0.04,VWS V14.01,2014-01-02 04:53:00,
2014-01-01 22:54:00,55.8,54.6,29.91,SSE,153,3.1,4.0,96,0.00,,,0.04,VWS V14.01,2014-01-02 04:54:00,
2014-01-01 22:55:00,55.8,54.6,29.91,East,90,0.0,3.1,96,0.00,,,0.04,VWS V14.01,2014-01-02 04:55:00,
2014-01-01 22:56:00,55.8,54.9,29.91,SSW,192,0.0,3.6,97,0.04,,,0.08,VWS V14.01,2014-01-02 04:56:00,
2014-01-01 22:57:00,55.8,54.9,29.91,SE,145,0.0,0.0,97,0.04,,,0.08,VWS V14.01,2014-01-02 04:57:00,
2014-01-01 22:58:00,55.8,54.9,29.91,SSE,160,0.0,0.0,97,0.04,,,0.08,VWS V14.01,2014-01-02 04:58:00,
2014-01-01 22:59:00,55.8,54.9,29.91,SE,146,3.6,5.4,97,0.04,,,0.08,VWS V14.01,2014-01-02 04:59:00,
2014-01-01 23:00:00,55.8,54.9,29.91,ENE,77,0.0,3.6,97,0.04,,,0.08,VWS V14.01,2014-01-02 05:00:00,
2014-01-01 23:01:00,55.8,54.9,29.91,ENE,77,0.0,0.0,97,0.04,,,0.08,VWS V14.01,2014-01-02 05:01:00,
2014-01-01 23:02:00,55.8,54.9,29.91,ESE,118,0.0,5.4,97,0.04,,,0.08,VWS V14.01,2014-01-02 05:02:00,
2014-01-01 23:03:00,55.8,54.9,29.91,SSE,165,3.1,3.6,97,0.04,,,0.08,VWS V14.01,2014-01-02 05:03:00,
2014-01-01 23:04:00,55.8,55.2,29.91,SE,132,0.0,2.2,98,0.04,,,0.08,VWS V14.01,2014-01-02 05:04:00,
2014-01-01 23:05:00,55.8,55.2,29.91,ESE,105,3.1,3.1,98,0.04,,,0.08,VWS V14.01,2014-01-02 05:05:00,
2014-01-01 23:06:00,55.8,55.2,29.91,SE,130,3.6,5.8,98,0.04,,,0.08,VWS V14.01,2014-01-02 05:06:00,
2014-01-01 23:07:00,55.8,55.2,29.91,SE,131,4.0,4.0,98,0.04,,,0.08,VWS V14.01,2014-01-02 05:07:00,
2014-01-01 23:08:00,55.8,55.2,29.91,SSE,168,5.8,5.8,98,0.04,,,0.08,VWS V14.01,2014-01-02 05:08:00,
2014-01-01 23:09:00,55.8,55.2,29.91,East,91,0.0,5.8,98,0.04,,,0.08,VWS V14.01,2014-01-02 05:09:00,
2014-01-01 23:10:00,55.8,55.2,29.91,East,91,0.0,0.0,98,0.04,,,0.08,VWS V14.01,2014-01-02 05:10:00,
2014-01-01 23:11:00,55.8,55.2,29.91,SSE,156,0.0,0.0,98,0.04,,,0.08,VWS V14.01,2014-01-02 05:11:00,
2014-01-01 23:12:00,55.8,55.2,29.91,SE,130,4.0,4.0,98,0.04,,,0.08,VWS V14.01,2014-01-02 05:12:00,
2014-01-01 23:13:00,55.8,55.2,29.91,SE,129,0.0,4.0,98,0.04,,,0.08,VWS V14.01,2014-01-02 05:13:00,
2014-01-01 23:14:00,55.8,55.5,29.91,ESE,105,2.7,4.0,99,0.04,,,0.08,VWS V14.01,2014-01-02 05:14:00,
2014-01-01 23:15:00,55.8,55.5,29.91,NE,37,0.0,3.1,99,0.04,,,0.08,VWS V14.01,2014-01-02 05:15:00,
2014-01-01 23:16:00,55.8,55.5,29.91,NE,37,0.0,0.0,99,0.04,,,0.08,VWS V14.01,2014-01-02 05:16:00,
2014-01-01 23:17:00,55.8,55.5,29.91,NE,37,0.0,0.0,99,0.04,,,0.08,VWS V14.01,2014-01-02 05:17:00,
2014-01-01 23:18:00,55.8,55.5,29.91,NNE,27,0.0,0.0,99,0.04,,,0.08,VWS V14.01,2014-01-02 05:18:00,
2014-01-01 23:19:00,55.8,55.5,29.91,North,1,3.6,3.6,99,0.04,,,0.08,VWS V14.01,2014-01-02 05:19:00,
2014-01-01 23:20:00,55.8,55.5,29.91,North,1,0.0,3.6,99,0.04,,,0.08,VWS V14.01,2014-01-02 05:20:00,
2014-01-01 23:21:00,55.8,55.5,29.91,NE,35,0.0,0.0,99,0.04,,,0.08,VWS V14.01,2014-01-02 05:21:00,
2014-01-01 23:22:00,55.8,55.5,29.91,NE,35,0.0,0.0,99,0.04,,,0.08,VWS V14.01,2014-01-02 05:22:00,
2014-01-01 23:23:00,55.8,55.5,29.91,NE,35,0.0,0.0,99,0.04,,,0.08,VWS V14.01,2014-01-02 05:23:00,
2014-01-01 23:24:00,55.8,55.5,29.91,NE,35,0.0,0.0,99,0.04,,,0.08,VWS V14.01,2014-01-02 05:24:00,
2014-01-01 23:25:00,55.8,55.5,29.91,NE,35,0.0,0.0,99,0.04,,,0.08,VWS V14.01,2014-01-02 05:25:00,
2014-01-01 23:26:00,55.8,55.5,29.91,NW,325,0.0,0.0,99,0.04,,,0.08,VWS V14.01,2014-01-02 05:26:00,
2014-01-01 23:27:00,55.8,55.5,29.91,NNW,327,0.0,0.0,99,0.04,,,0.08,VWS V14.01,2014-01-02 05:27:00,
2014-01-01 23:28:00,55.8,55.5,29.91,NNW,327,0.0,0.0,99,0.04,,,0.08,VWS V14.01,2014-01-02 05:28:00,
2014-01-01 23:29:00,55.8,55.8,29.91,NNW,327,0.0,0.0,100,0.04,,,0.08,VWS V14.01,2014-01-02 05:29:00,
2014-01-01 23:30:00,55.8,55.8,29.91,NNW,327,0.0,0.0,100,0.04,,,0.08,VWS V14.01,2014-01-02 05:30:00,
2014-01-01 23:31:00,55.8,55.8,29.91,NNW,327,0.0,0.0,100,0.04,,,0.08,VWS V14.01,2014-01-02 05:31:00,
2014-01-01 23:32:00,55.8,55.8,29.91,WNW,301,0.0,0.0,100,0.04,,,0.08,VWS V14.01,2014-01-02 05:32:00,
2014-01-01 23:33:00,55.8,55.8,29.91,NW,306,0.0,0.0,100,0.04,,,0.08,VWS V14.01,2014-01-02 05:33:00,
2014-01-01 23:34:00,55.8,55.8,29.91,WNW,299,0.0,0.0,100,0.04,,,0.08,VWS V14.01,2014-01-02 05:34:00,
2014-01-01 23:35:00,55.8,55.8,29.91,WNW,298,3.1,3.1,100,0.04,,,0.08,VWS V14.01,2014-01-02 05:35:00,